Time,TemperatureF,DewpointF,PressureIn,WindDirection,WindDirectionDegrees,WindSpeedMPH,WindSpeedGustMPH,Humidity,HourlyPrecipIn,Conditions,Clouds,dailyrainin,SoftwareType,DateUTC
2013-04-24 00:02:00,38.6,34.2,30.00,NNW,347,3.0,4.0,84,0.00,,,0.00,Wunderground v.1.15,2013-04-24 05:02:00,
2013-04-24 00:03:00,38.6,34.2,30.00,NNW,347,3.0,4.0,84,0.00,,,0.00,Wunderground v.1.15,2013-04-24 05:03:00,
2013-04-24 00:04:00,38.6,34.2,30.00,NNW,346,3.0,4.0,84,0.00,,,0.00,Wunderground v.1.15,2013-04-24 05:04:00,
2013-04-24 00:08:00,38.6,34.2,30.01,NNW,338,3.0,4.0,84,0.00,,,0.00,Wunderground v.1.15,2013-04-24 05:08:00,
2013-04-24 00:09:00,38.5,34.1,30.01,NNW,339,3.0,4.0,84,0.00,,,0.00,Wunderground v.1.15,2013-04-24 05:09:00,
2013-04-24 00:13:00,38.5,34.1,30.00,NNW,341,4.0,5.0,84,0.00,,,0.00,Wunderground v.1.15,2013-04-24 05:13:00,
2013-04-24 00:14:00,38.5,34.1,30.00,NNW,341,4.0,5.0,84,0.00,,,0.00,Wunderground v.1.15,2013-04-24 05:14:00,
2013-04-24 00:15:00,38.5,34.1,30.00,NNW,340,4.0,5.0,84,0.00,,,0.00,Wunderground v.1.15,2013-04-24 05:15:00,
2013-04-24 00:16:00,38.5,34.1,30.01,NNW,342,4.0,5.0,84,0.00,,,0.00,Wunderground v.1.15,2013-04-24 05:16:00,
2013-04-24 00:17:00,38.5,34.1,30.01,NNW,340,4.0,6.0,84,0.00,,,0.00,Wunderground v.1.15,2013-04-24 05:17:00,
2013-04-24 00:20:00,38.5,34.1,30.02,NNW,340,3.0,3.0,84,0.00,,,0.00,Wunderground v.1.15,2013-04-24 05:20:00,
2013-04-24 00:21:00,38.5,34.1,30.01,NNW,340,3.0,3.0,84,0.00,,,0.00,Wunderground v.1.15,2013-04-24 05:21:00,
2013-04-24 00:22:00,38.5,34.1,30.01,NNW,338,3.0,3.0,84,0.00,,,0.00,Wunderground v.1.15,2013-04-24 05:22:00,
2013-04-24 00:23:00,38.5,34.1,30.01,NNW,338,3.0,4.0,84,0.00,,,0.00,Wunderground v.1.15,2013-04-24 05:23:00,
2013-04-24 00:27:00,38.4,33.7,30.01,NNW,338,3.0,6.0,83,0.00,,,0.00,Wunderground v.1.15,2013-04-24 05:27:00,
2013-04-24 00:28:00,38.4,33.7,30.01,NNW,339,3.0,6.0,83,0.00,,,0.00,Wunderground v.1.15,2013-04-24 05:28:00,
2013-04-24 00:29:00,38.5,33.8,30.01,NNW,339,3.0,6.0,83,0.00,,,0.00,Wunderground v.1.15,2013-04-24 05:29:00,
2013-04-24 00:31:00,38.5,33.8,30.01,NNW,346,4.0,7.0,83,0.00,,,0.00,Wunderground v.1.15,2013-04-24 05:31:00,
2013-04-24 00:32:00,38.4,33.7,30.01,NNW,342,4.0,7.0,83,0.00,,,0.00,Wunderground v.1.15,2013-04-24 05:32:00,
2013-04-24 00:36:00,38.4,33.7,30.02,NNW,338,4.0,7.0,83,0.00,,,0.00,Wunderground v.1.15,2013-04-24 05:36:00,
2013-04-24 00:37:00,38.4,33.7,30.02,NNW,338,4.0,7.0,83,0.00,,,0.00,Wunderground v.1.15,2013-04-24 05:37:00,
2013-04-24 00:38:00,38.4,33.7,30.02,NNW,338,4.0,7.0,83,0.00,,,0.00,Wunderground v.1.15,2013-04-24 05:38:00,
2013-04-24 00:40:00,38.4,33.7,30.02,NNW,338,4.0,4.0,83,0.00,,,0.00,Wunderground v.1.15,2013-04-24 05:40:00,
2013-04-24 00:43:00,38.4,33.7,30.01,NNW,339,3.0,5.0,83,0.00,,,0.00,Wunderground v.1.15,2013-04-24 05:43:00,
2013-04-24 00:44:00,38.4,33.7,30.01,NNW,339,3.0,5.0,83,0.00,,,0.00,Wunderground v.1.15,2013-04-24 05:44:00,
2013-04-24 00:45:00,38.4,33.7,30.01,NNW,339,3.0,5.0,83,0.00,,,0.00,Wunderground v.1.15,2013-04-24 05:45:00,
2013-04-24 00:49:00,38.4,34.0,30.01,NNW,339,3.0,5.0,84,0.00,,,0.00,Wunderground v.1.15,2013-04-24 05:49:00,
2013-04-24 00:50:00,38.4,34.0,30.02,NNW,340,3.0,4.0,84,0.00,,,0.00,Wunderground v.1.15,2013-04-24 05:50:00,
2013-04-24 00:51:00,38.4,34.0,30.01,NNW,340,3.0,5.0,84,0.00,,,0.00,Wunderground v.1.15,2013-04-24 05:51:00,
2013-04-24 00:53:00,38.4,34.0,30.01,NNW,340,3.0,5.0,84,0.00,,,0.00,Wunderground v.1.15,2013-04-24 05:53:00,
2013-04-24 00:54:00,38.4,34.0,30.01,NNW,340,3.0,5.0,84,0.00,,,0.00,Wunderground v.1.15,2013-04-24 05:54:00,
2013-04-24 00:55:00,38.3,33.9,30.01,NNW,340,3.0,5.0,84,0.00,,,0.00,Wunderground v.1.15,2013-04-24 05:55:00,
2013-04-24 00:57:00,38.3,33.6,30.02,NNW,338,4.0,5.0,83,0.00,,,0.00,Wunderground v.1.15,2013-04-24 05:57:00,
2013-04-24 01:00:00,38.3,33.6,30.02,NNW,340,4.0,4.0,83,0.00,,,0.00,Wunderground v.1.15,2013-04-24 06:00:00,
2013-04-24 01:01:00,38.3,33.6,30.02,NNW,340,4.0,4.0,83,0.00,,,0.00,Wunderground v.1.15,2013-04-24 06:01:00,
2013-04-24 01:03:00,38.3,33.6,30.01,NNW,339,4.0,4.0,83,0.00,,,0.00,Wunderground v.1.15,2013-04-24 06:03:00,
2013-04-24 01:06:00,38.3,33.6,30.01,NNW,340,4.0,4.0,83,0.00,,,0.00,Wunderground v.1.15,2013-04-24 06:06:00,
2013-04-24 01:08:00,38.3,33.6,30.01,NNW,339,4.0,5.0,83,0.00,,,0.00,Wunderground v.1.15,2013-04-24 06:08:00,
2013-04-24 01:09:00,38.3,33.6,30.01,NNW,338,4.0,5.0,83,0.00,,,0.00,Wunderground v.1.15,2013-04-24 06:09:00,
2013-04-24 01:10:00,38.2,33.5,30.01,NNW,340,4.0,4.0,83,0.00,,,0.00,Wunderground v.1.15,2013-04-24 06:10:00,
2013-04-24 01:12:00,38.3,33.6,30.01,NNW,340,4.0,5.0,83,0.00,,,0.00,Wunderground v.1.15,2013-04-24 06:12:00,
2013-04-24 01:14:00,38.2,33.5,30.01,NNW,340,4.0,5.0,83,0.00,,,0.00,Wunderground v.1.15,2013-04-24 06:14:00,
2013-04-24 01:15:00,38.2,33.5,30.00,NNW,340,4.0,5.0,83,0.00,,,0.00,Wunderground v.1.15,2013-04-24 06:15:00,
2013-04-24 01:18:00,38.1,33.4,30.01,NNW,340,4.0,5.0,83,0.00,,,0.00,Wunderground v.1.15,2013-04-24 06:18:00,
2013-04-24 01:22:00,38.1,33.4,30.00,NNW,341,4.0,10.0,83,0.00,,,0.00,Wunderground v.1.15,2013-04-24 06:22:00,
2013-04-24 01:23:00,38.1,33.4,30.00,NNW,342,4.0,10.0,83,0.00,,,0.00,Wunderground v.1.15,2013-04-24 06:23:00,
2013-04-24 01:28:00,38.0,33.3,30.00,NNW,342,4.0,10.0,83,0.00,,,0.00,Wunderground v.1.15,2013-04-24 06:28:00,
2013-04-24 01:29:00,38.0,33.3,30.00,NNW,342,4.0,10.0,83,0.00,,,0.00,Wunderground v.1.15,2013-04-24 06:29:00,
2013-04-24 01:32:00,38.0,33.3,30.00,NNW,342,4.0,4.0,83,0.00,,,0.00,Wunderground v.1.15,2013-04-24 06:32:00,
2013-04-24 01:33:00,37.9,33.2,30.00,NNW,342,4.0,4.0,83,0.00,,,0.00,Wunderground v.1.15,2013-04-24 06:33:00,
2013-04-24 01:37:00,37.9,33.2,30.00,NNW,340,4.0,6.0,83,0.00,,,0.00,Wunderground v.1.15,2013-04-24 06:37:00,
2013-04-24 01:38:00,37.9,33.2,30.00,NNW,336,4.0,6.0,83,0.00,,,0.00,Wunderground v.1.15,2013-04-24 06:38:00,
2013-04-24 01:39:00,37.9,33.2,30.01,NNW,337,4.0,6.0,83,0.00,,,0.00,Wunderground v.1.15,2013-04-24 06:39:00,
2013-04-24 01:41:00,37.9,33.2,30.01,NW,324,4.0,7.0,83,0.00,,,0.00,Wunderground v.1.15,2013-04-24 06:41:00,
2013-04-24 01:44:00,37.8,33.1,30.01,NNW,333,4.0,7.0,83,0.00,,,0.00,Wunderground v.1.15,2013-04-24 06:44:00,
2013-04-24 01:46:00,37.8,33.1,30.00,NNW,340,5.0,7.0,83,0.00,,,0.00,Wunderground v.1.15,2013-04-24 06:46:00,
2013-04-24 01:50:00,37.8,32.8,30.00,NNW,335,5.0,5.0,82,0.00,,,0.00,Wunderground v.1.15,2013-04-24 06:50:00,
2013-04-24 01:52:00,37.7,32.7,30.00,NNW,334,5.0,5.0,82,0.00,,,0.00,Wunderground v.1.15,2013-04-24 06:52:00,
2013-04-24 01:53:00,37.8,32.8,30.00,NNW,336,5.0,5.0,82,0.00,,,0.00,Wunderground v.1.15,2013-04-24 06:53:00,
2013-04-24 01:54:00,37.7,32.7,30.00,NNW,336,5.0,5.0,82,0.00,,,0.00,Wunderground v.1.15,2013-04-24 06:54:00,
2013-04-24 01:57:00,37.7,32.7,30.00,NNW,334,4.0,5.0,82,0.00,,,0.00,Wunderground v.1.15,2013-04-24 06:57:00,
2013-04-24 02:00:00,37.7,32.7,30.00,NNW,337,4.0,4.0,82,0.00,,,0.00,Wunderground v.1.15,2013-04-24 07:00:00,
2013-04-24 02:02:00,37.7,32.7,30.00,NNW,345,4.0,5.0,82,0.00,,,0.00,Wunderground v.1.15,2013-04-24 07:02:00,
2013-04-24 02:04:00,37.7,32.7,30.00,NNW,342,4.0,7.0,82,0.00,,,0.00,Wunderground v.1.15,2013-04-24 07:04:00,
2013-04-24 02:05:00,37.7,32.7,30.00,NNW,341,4.0,7.0,82,0.00,,,0.00,Wunderground v.1.15,2013-04-24 07:05:00,
2013-04-24 02:06:00,37.7,32.7,30.00,NNW,341,4.0,7.0,82,0.00,,,0.00,Wunderground v.1.15,2013-04-24 07:06:00,
2013-04-24 02:07:00,37.7,32.7,30.00,NNW,335,5.0,7.0,82,0.00,,,0.00,Wunderground v.1.15,2013-04-24 07:07:00,
2013-04-24 02:12:00,37.7,32.7,29.99,NNW,335,4.0,7.0,82,0.00,,,0.00,Wunderground v.1.15,2013-04-24 07:12:00,
2013-04-24 02:13:00,37.7,32.7,29.99,NNW,344,5.0,7.0,82,0.00,,,0.00,Wunderground v.1.15,2013-04-24 07:13:00,
2013-04-24 02:15:00,37.6,32.6,29.99,NNW,344,5.0,7.0,82,0.00,,,0.00,Wunderground v.1.15,2013-04-24 07:15:00,
2013-04-24 02:18:00,37.6,32.6,29.99,NNW,342,4.0,7.0,82,0.00,,,0.00,Wunderground v.1.15,2013-04-24 07:18:00,
2013-04-24 02:19:00,37.6,32.6,29.99,NNW,340,4.0,7.0,82,0.00,,,0.00,Wunderground v.1.15,2013-04-24 07:19:00,
2013-04-24 02:21:00,37.5,32.5,29.99,NNW,340,4.0,4.0,82,0.00,,,0.00,Wunderground v.1.15,2013-04-24 07:21:00,
2013-04-24 02:22:00,37.5,32.5,29.99,North,349,4.0,4.0,82,0.00,,,0.00,Wunderground v.1.15,2013-04-24 07:22:00,
2013-04-24 02:24:00,37.5,32.5,29.98,NNW,348,4.0,4.0,82,0.00,,,0.00,Wunderground v.1.15,2013-04-24 07:24:00,
2013-04-24 02:26:00,37.5,32.5,29.98,NNW,335,4.0,6.0,82,0.00,,,0.00,Wunderground v.1.15,2013-04-24 07:26:00,
2013-04-24 02:27:00,37.5,32.2,29.98,NNW,337,4.0,6.0,81,0.00,,,0.00,Wunderground v.1.15,2013-04-24 07:27:00,
2013-04-24 02:30:00,37.5,32.5,29.98,NW,326,5.0,5.0,82,0.00,,,0.00,Wunderground v.1.15,2013-04-24 07:30:00,
2013-04-24 02:31:00,37.5,32.5,29.98,NNW,329,5.0,6.0,82,0.00,,,0.00,Wunderground v.1.15,2013-04-24 07:31:00,
2013-04-24 02:33:00,37.5,32.5,29.99,NNW,331,5.0,6.0,82,0.00,,,0.00,Wunderground v.1.15,2013-04-24 07:33:00,
2013-04-24 02:38:00,37.4,32.1,29.98,NNW,333,5.0,8.0,81,0.00,,,0.00,Wunderground v.1.15,2013-04-24 07:38:00,
2013-04-24 02:40:00,37.4,32.1,29.98,NNW,347,4.0,4.0,81,0.00,,,0.00,Wunderground v.1.15,2013-04-24 07:40:00,
2013-04-24 02:42:00,37.4,32.1,29.98,NNW,346,4.0,4.0,81,0.00,,,0.00,Wunderground v.1.15,2013-04-24 07:42:00,
2013-04-24 02:44:00,37.4,32.1,29.98,NNW,346,4.0,4.0,81,0.00,,,0.00,Wunderground v.1.15,2013-04-24 07:44:00,
2013-04-24 02:45:00,37.4,32.4,29.98,NNW,344,4.0,6.0,82,0.00,,,0.00,Wunderground v.1.15,2013-04-24 07:45:00,
2013-04-24 02:49:00,37.3,32.3,29.98,NNW,340,4.0,6.0,82,0.00,,,0.00,Wunderground v.1.15,2013-04-24 07:49:00,
2013-04-24 02:50:00,37.3,32.0,29.98,NNW,338,4.0,4.0,81,0.00,,,0.00,Wunderground v.1.15,2013-04-24 07:50:00,
2013-04-24 02:51:00,37.3,32.0,29.98,NNW,340,4.0,4.0,81,0.00,,,0.00,Wunderground v.1.15,2013-04-24 07:51:00,
2013-04-24 02:53:00,37.3,32.0,29.98,NNW,339,4.0,4.0,81,0.00,,,0.00,Wunderground v.1.15,2013-04-24 07:53:00,
2013-04-24 02:55:00,37.3,32.0,29.98,NNW,339,4.0,5.0,81,0.00,,,0.00,Wunderground v.1.15,2013-04-24 07:55:00,
2013-04-24 02:58:00,37.3,32.0,29.98,NNW,339,3.0,5.0,81,0.00,,,0.00,Wunderground v.1.15,2013-04-24 07:58:00,
2013-04-24 02:59:00,37.3,32.0,29.99,NNW,344,4.0,6.0,81,0.00,,,0.00,Wunderground v.1.15,2013-04-24 07:59:00,
2013-04-24 03:01:00,37.3,32.0,29.99,NNW,343,3.0,4.0,81,0.00,,,0.00,Wunderground v.1.15,2013-04-24 08:01:00,
2013-04-24 03:04:00,37.3,32.0,29.99,NNW,343,4.0,6.0,81,0.00,,,0.00,Wunderground v.1.15,2013-04-24 08:04:00,
2013-04-24 03:05:00,37.3,32.0,29.99,NNW,343,4.0,6.0,81,0.00,,,0.00,Wunderground v.1.15,2013-04-24 08:05:00,
2013-04-24 03:07:00,37.3,32.3,29.99,NW,325,4.0,6.0,82,0.00,,,0.00,Wunderground v.1.15,2013-04-24 08:07:00,
2013-04-24 03:08:00,37.2,31.9,29.99,NNW,343,4.0,6.0,81,0.00,,,0.00,Wunderground v.1.15,2013-04-24 08:08:00,
2013-04-24 03:09:00,37.3,32.0,29.99,NNW,346,4.0,6.0,81,0.00,,,0.00,Wunderground v.1.15,2013-04-24 08:09:00,
2013-04-24 03:12:00,37.2,31.9,29.99,NNW,341,4.0,5.0,81,0.00,,,0.00,Wunderground v.1.15,2013-04-24 08:12:00,
2013-04-24 03:13:00,37.2,31.9,29.99,NNW,329,4.0,5.0,81,0.00,,,0.00,Wunderground v.1.15,2013-04-24 08:13:00,
2013-04-24 03:15:00,37.2,31.9,29.99,NNW,329,4.0,5.0,81,0.00,,,0.00,Wunderground v.1.15,2013-04-24 08:15:00,
2013-04-24 03:17:00,37.2,31.9,29.99,NNW,331,4.0,5.0,81,0.00,,,0.00,Wunderground v.1.15,2013-04-24 08:17:00,
2013-04-24 03:19:00,37.2,31.9,29.99,NNW,333,4.0,6.0,81,0.00,,,0.00,Wunderground v.1.15,2013-04-24 08:19:00,
2013-04-24 03:20:00,37.2,31.9,29.99,NNW,334,4.0,5.0,81,0.00,,,0.00,Wunderground v.1.15,2013-04-24 08:20:00,
2013-04-24 03:23:00,37.2,32.2,29.99,NNW,331,4.0,5.0,82,0.00,,,0.00,Wunderground v.1.15,2013-04-24 08:23:00,
2013-04-24 03:25:00,37.2,32.2,30.00,NNW,327,4.0,5.0,82,0.00,,,0.00,Wunderground v.1.15,2013-04-24 08:25:00,
2013-04-24 03:27:00,37.2,32.2,30.00,NW,325,4.0,5.0,82,0.00,,,0.00,Wunderground v.1.15,2013-04-24 08:27:00,
2013-04-24 03:28:00,37.1,32.1,30.00,NW,325,4.0,5.0,82,0.00,,,0.00,Wunderground v.1.15,2013-04-24 08:28:00,
2013-04-24 03:30:00,37.1,32.1,30.00,NNW,332,4.0,4.0,82,0.00,,,0.00,Wunderground v.1.15,2013-04-24 08:30:00,
2013-04-24 03:34:00,37.1,32.1,30.00,NNW,336,4.0,5.0,82,0.00,,,0.00,Wunderground v.1.15,2013-04-24 08:34:00,
2013-04-24 03:35:00,37.1,32.1,30.00,NNW,339,4.0,5.0,82,0.00,,,0.00,Wunderground v.1.15,2013-04-24 08:35:00,
2013-04-24 03:36:00,37.1,32.1,30.00,NNW,337,4.0,5.0,82,0.00,,,0.00,Wunderground v.1.15,2013-04-24 08:36:00,
2013-04-24 03:39:00,37.1,32.1,30.00,NNW,338,4.0,5.0,82,0.00,,,0.00,Wunderground v.1.15,2013-04-24 08:39:00,
2013-04-24 03:40:00,37.0,32.0,30.00,NNW,336,3.0,3.0,82,0.00,,,0.00,Wunderground v.1.15,2013-04-24 08:40:00,
2013-04-24 03:41:00,37.0,32.0,30.00,NNW,336,3.0,3.0,82,0.00,,,0.00,Wunderground v.1.15,2013-04-24 08:41:00,
2013-04-24 03:43:00,37.0,32.0,30.00,NNW,336,3.0,3.0,82,0.00,,,0.00,Wunderground v.1.15,2013-04-24 08:43:00,
2013-04-24 03:44:00,37.0,32.0,30.00,NNW,336,3.0,3.0,82,0.00,,,0.00,Wunderground v.1.15,2013-04-24 08:44:00,
2013-04-24 03:45:00,37.0,32.0,30.01,NNW,336,3.0,3.0,82,0.00,,,0.00,Wunderground v.1.15,2013-04-24 08:45:00,
2013-04-24 03:46:00,37.0,32.0,30.01,NNW,336,2.0,3.0,82,0.00,,,0.00,Wunderground v.1.15,2013-04-24 08:46:00,
2013-04-24 03:48:00,37.0,32.0,30.01,NNW,336,2.0,3.0,82,0.00,,,0.00,Wunderground v.1.15,2013-04-24 08:48:00,
2013-04-24 03:50:00,37.0,32.3,30.01,NNW,336,1.0,2.0,83,0.00,,,0.00,Wunderground v.1.15,2013-04-24 08:50:00,
2013-04-24 03:52:00,36.9,32.2,30.00,NNW,336,1.0,2.0,83,0.00,,,0.00,Wunderground v.1.15,2013-04-24 08:52:00,
2013-04-24 03:55:00,36.9,32.5,30.01,NNW,336,1.0,3.0,84,0.00,,,0.00,Wunderground v.1.15,2013-04-24 08:55:00,
2013-04-24 03:56:00,36.9,32.5,30.01,NNW,336,2.0,3.0,84,0.00,,,0.00,Wunderground v.1.15,2013-04-24 08:56:00,
2013-04-24 03:57:00,36.8,32.4,30.01,NNW,336,1.0,3.0,84,0.00,,,0.00,Wunderground v.1.15,2013-04-24 08:57:00,
2013-04-24 03:58:00,36.8,32.4,30.01,NNW,336,1.0,3.0,84,0.00,,,0.00,Wunderground v.1.15,2013-04-24 08:58:00,
2013-04-24 04:02:00,36.8,32.7,30.01,NNW,336,1.0,2.0,85,0.00,,,0.00,Wunderground v.1.15,2013-04-24 09:02:00,
2013-04-24 04:03:00,36.7,32.6,30.01,NNW,336,1.0,2.0,85,0.00,,,0.00,Wunderground v.1.15,2013-04-24 09:03:00,
2013-04-24 04:04:00,36.7,32.6,30.01,NNW,336,1.0,2.0,85,0.00,,,0.00,Wunderground v.1.15,2013-04-24 09:04:00,
2013-04-24 04:08:00,36.6,32.8,30.01,NNW,336,1.0,4.0,86,0.00,,,0.00,Wunderground v.1.15,2013-04-24 09:08:00,
2013-04-24 04:09:00,36.6,32.8,30.01,NNW,336,1.0,4.0,86,0.00,,,0.00,Wunderground v.1.15,2013-04-24 09:09:00,
2013-04-24 04:10:00,36.6,32.8,30.01,NNW,336,1.0,1.0,86,0.00,,,0.00,Wunderground v.1.15,2013-04-24 09:10:00,
2013-04-24 04:12:00,36.6,33.1,30.01,NNW,336,1.0,4.0,87,0.00,,,0.00,Wunderground v.1.15,2013-04-24 09:12:00,
2013-04-24 04:15:00,36.5,33.0,30.01,NNW,336,2.0,4.0,87,0.00,,,0.00,Wunderground v.1.15,2013-04-24 09:15:00,
2013-04-24 04:17:00,36.5,33.0,30.02,NNW,336,2.0,4.0,87,0.00,,,0.00,Wunderground v.1.15,2013-04-24 09:17:00,
2013-04-24 04:18:00,36.5,33.0,30.01,NNW,336,2.0,4.0,87,0.00,,,0.00,Wunderground v.1.15,2013-04-24 09:18:00,
2013-04-24 04:19:00,36.5,33.0,30.02,NNW,336,2.0,4.0,87,0.00,,,0.00,Wunderground v.1.15,2013-04-24 09:19:00,
2013-04-24 04:21:00,36.4,32.9,30.01,NNW,336,2.0,2.0,87,0.00,,,0.00,Wunderground v.1.15,2013-04-24 09:21:00,
2013-04-24 04:24:00,36.4,32.9,30.02,NNW,336,1.0,2.0,87,0.00,,,0.00,Wunderground v.1.15,2013-04-24 09:24:00,
2013-04-24 04:26:00,36.3,32.8,30.01,NNW,336,1.0,2.0,87,0.00,,,0.00,Wunderground v.1.15,2013-04-24 09:26:00,
2013-04-24 04:27:00,36.4,32.9,30.01,NNW,336,1.0,2.0,87,0.00,,,0.00,Wunderground v.1.15,2013-04-24 09:27:00,
2013-04-24 04:28:00,36.3,32.8,30.01,NNW,336,2.0,2.0,87,0.00,,,0.00,Wunderground v.1.15,2013-04-24 09:28:00,
2013-04-24 04:31:00,36.2,32.7,30.01,NNW,336,2.0,2.0,87,0.00,,,0.00,Wunderground v.1.15,2013-04-24 09:31:00,
2013-04-24 04:33:00,36.2,32.7,30.02,NNW,336,2.0,2.0,87,0.00,,,0.00,Wunderground v.1.15,2013-04-24 09:33:00,
2013-04-24 04:34:00,36.2,32.7,30.02,NNW,336,2.0,2.0,87,0.00,,,0.00,Wunderground v.1.15,2013-04-24 09:34:00,
2013-04-24 04:36:00,36.2,32.7,30.02,NNW,336,2.0,2.0,87,0.00,,,0.00,Wunderground v.1.15,2013-04-24 09:36:00,
2013-04-24 04:37:00,36.1,32.6,30.02,NNW,336,2.0,2.0,87,0.00,,,0.00,Wunderground v.1.15,2013-04-24 09:37:00,
2013-04-24 04:38:00,36.1,32.6,30.02,NNW,334,2.0,2.0,87,0.00,,,0.00,Wunderground v.1.15,2013-04-24 09:38:00,
2013-04-24 04:40:00,36.1,32.6,30.02,NNW,334,2.0,2.0,87,0.00,,,0.00,Wunderground v.1.15,2013-04-24 09:40:00,
2013-04-24 04:44:00,36.1,32.6,30.02,NNW,334,2.0,2.0,87,0.00,,,0.00,Wunderground v.1.15,2013-04-24 09:44:00,
2013-04-24 04:45:00,36.0,32.5,30.02,NNW,334,2.0,2.0,87,0.00,,,0.00,Wunderground v.1.15,2013-04-24 09:45:00,
2013-04-24 04:46:00,36.0,32.5,30.02,NNW,334,2.0,2.0,87,0.00,,,0.00,Wunderground v.1.15,2013-04-24 09:46:00,
2013-04-24 04:48:00,36.0,32.5,30.02,NNW,333,2.0,2.0,87,0.00,,,0.00,Wunderground v.1.15,2013-04-24 09:48:00,
2013-04-24 04:50:00,36.0,32.5,30.02,NNW,333,2.0,2.0,87,0.00,,,0.00,Wunderground v.1.15,2013-04-24 09:50:00,
2013-04-24 04:52:00,35.9,32.4,30.02,NNW,333,2.0,2.0,87,0.00,,,0.00,Wunderground v.1.15,2013-04-24 09:52:00,
2013-04-24 04:53:00,35.9,32.4,30.02,NNW,333,2.0,2.0,87,0.00,,,0.00,Wunderground v.1.15,2013-04-24 09:53:00,
2013-04-24 04:58:00,35.9,32.1,30.02,NNW,333,1.0,2.0,86,0.00,,,0.00,Wunderground v.1.15,2013-04-24 09:58:00,
2013-04-24 04:59:00,35.9,32.1,30.02,NNW,333,1.0,2.0,86,0.00,,,0.00,Wunderground v.1.15,2013-04-24 09:59:00,
2013-04-24 05:00:00,35.9,32.1,30.02,NNW,333,1.0,3.0,86,0.00,,,0.00,Wunderground v.1.15,2013-04-24 10:00:00,
2013-04-24 05:01:00,35.9,32.1,30.02,NNW,333,1.0,3.0,86,0.00,,,0.00,Wunderground v.1.15,2013-04-24 10:01:00,
2013-04-24 05:03:00,35.9,32.1,30.02,NNW,333,1.0,3.0,86,0.00,,,0.00,Wunderground v.1.15,2013-04-24 10:03:00,
2013-04-24 05:07:00,35.8,32.0,30.02,NNW,333,2.0,3.0,86,0.00,,,0.00,Wunderground v.1.15,2013-04-24 10:07:00,
2013-04-24 05:08:00,35.8,32.0,30.02,NNW,333,2.0,3.0,86,0.00,,,0.00,Wunderground v.1.15,2013-04-24 10:08:00,
2013-04-24 05:09:00,35.8,32.0,30.02,NNW,333,2.0,3.0,86,0.00,,,0.00,Wunderground v.1.15,2013-04-24 10:09:00,
2013-04-24 05:10:00,35.7,31.9,30.02,NNW,333,2.0,2.0,86,0.00,,,0.00,Wunderground v.1.15,2013-04-24 10:10:00,
2013-04-24 05:13:00,35.7,31.9,30.02,NNW,333,1.0,2.0,86,0.00,,,0.00,Wunderground v.1.15,2013-04-24 10:13:00,
2013-04-24 05:14:00,35.7,31.9,30.02,NNW,333,1.0,2.0,86,0.00,,,0.00,Wunderground v.1.15,2013-04-24 10:14:00,
2013-04-24 05:15:00,35.7,31.9,30.02,NNW,333,1.0,2.0,86,0.00,,,0.00,Wunderground v.1.15,2013-04-24 10:15:00,
2013-04-24 05:16:00,35.7,31.9,30.02,NNW,333,1.0,2.0,86,0.00,,,0.00,Wunderground v.1.15,2013-04-24 10:16:00,
2013-04-24 05:17:00,35.7,31.9,30.01,NNW,332,1.0,2.0,86,0.00,,,0.00,Wunderground v.1.15,2013-04-24 10:17:00,
2013-04-24 05:19:00,35.7,31.9,30.01,NNW,332,1.0,4.0,86,0.00,,,0.00,Wunderground v.1.15,2013-04-24 10:19:00,
2013-04-24 05:20:00,35.6,31.8,30.01,NNW,332,2.0,4.0,86,0.00,,,0.00,Wunderground v.1.15,2013-04-24 10:20:00,
2013-04-24 05:21:00,35.6,31.8,30.01,NW,309,2.0,5.0,86,0.00,,,0.00,Wunderground v.1.15,2013-04-24 10:21:00,
2013-04-24 05:23:00,35.6,31.8,30.02,NW,309,2.0,5.0,86,0.00,,,0.00,Wunderground v.1.15,2013-04-24 10:23:00,
2013-04-24 05:24:00,35.6,31.8,30.02,NW,309,2.0,5.0,86,0.00,,,0.00,Wunderground v.1.15,2013-04-24 10:24:00,
2013-04-24 05:26:00,35.5,31.7,30.02,NW,310,3.0,5.0,86,0.00,,,0.00,Wunderground v.1.15,2013-04-24 10:26:00,
2013-04-24 05:28:00,35.5,31.7,30.02,NW,311,3.0,5.0,86,0.00,,,0.00,Wunderground v.1.15,2013-04-24 10:28:00,
2013-04-24 05:30:00,35.5,31.7,30.02,NW,318,3.0,3.0,86,0.00,,,0.00,Wunderground v.1.15,2013-04-24 10:30:00,
2013-04-24 05:32:00,35.5,31.7,30.03,NW,318,3.0,3.0,86,0.00,,,0.00,Wunderground v.1.15,2013-04-24 10:32:00,
2013-04-24 05:33:00,35.4,31.6,30.03,NW,318,3.0,3.0,86,0.00,,,0.00,Wunderground v.1.15,2013-04-24 10:33:00,
2013-04-24 05:35:00,35.4,31.3,30.03,NW,319,3.0,4.0,85,0.00,,,0.00,Wunderground v.1.15,2013-04-24 10:35:00,
2013-04-24 05:36:00,35.4,31.3,30.03,NW,319,2.0,4.0,85,0.00,,,0.00,Wunderground v.1.15,2013-04-24 10:36:00,
2013-04-24 05:37:00,35.4,31.3,30.03,NW,325,2.0,4.0,85,0.00,,,0.00,Wunderground v.1.15,2013-04-24 10:37:00,
2013-04-24 05:39:00,35.4,31.3,30.03,NW,324,2.0,4.0,85,0.00,,,0.00,Wunderground v.1.15,2013-04-24 10:39:00,
2013-04-24 05:41:00,35.4,31.3,30.03,NW,322,2.0,6.0,85,0.00,,,0.00,Wunderground v.1.15,2013-04-24 10:41:00,
2013-04-24 05:42:00,35.4,31.3,30.03,NW,317,2.0,6.0,85,0.00,,,0.00,Wunderground v.1.15,2013-04-24 10:42:00,
2013-04-24 05:44:00,35.4,31.3,30.03,NW,321,2.0,7.0,85,0.00,,,0.00,Wunderground v.1.15,2013-04-24 10:44:00,
2013-04-24 05:47:00,35.4,31.3,30.03,NW,319,2.0,7.0,85,0.00,,,0.00,Wunderground v.1.15,2013-04-24 10:47:00,
2013-04-24 05:50:00,35.4,31.3,30.03,NW,319,2.0,2.0,85,0.00,,,0.00,Wunderground v.1.15,2013-04-24 10:50:00,
2013-04-24 05:54:00,35.3,31.2,30.03,NW,320,2.0,4.0,85,0.00,,,0.00,Wunderground v.1.15,2013-04-24 10:54:00,
2013-04-24 05:55:00,35.3,31.2,30.03,NW,320,2.0,4.0,85,0.00,,,0.00,Wunderground v.1.15,2013-04-24 10:55:00,
2013-04-24 05:58:00,35.3,31.2,30.03,NW,321,2.0,4.0,85,0.00,,,0.00,Wunderground v.1.15,2013-04-24 10:58:00,
2013-04-24 06:01:00,35.3,31.2,30.03,NW,321,2.0,2.0,85,0.00,,,0.00,Wunderground v.1.15,2013-04-24 11:01:00,
2013-04-24 06:03:00,35.3,31.2,30.02,NW,320,2.0,4.0,85,0.00,,,0.00,Wunderground v.1.15,2013-04-24 11:03:00,
2013-04-24 06:05:00,35.2,31.1,30.02,NW,320,2.0,4.0,85,0.00,,,0.00,Wunderground v.1.15,2013-04-24 11:05:00,
2013-04-24 06:08:00,35.2,31.1,30.02,NW,321,3.0,4.0,85,0.00,,,0.00,Wunderground v.1.15,2013-04-24 11:08:00,
2013-04-24 06:09:00,35.2,31.1,30.03,NW,321,3.0,4.0,85,0.00,,,0.00,Wunderground v.1.15,2013-04-24 11:09:00,
2013-04-24 06:11:00,35.2,31.1,30.03,NW,320,3.0,5.0,85,0.00,,,0.00,Wunderground v.1.15,2013-04-24 11:11:00,
2013-04-24 06:13:00,35.2,31.1,30.03,NW,321,3.0,5.0,85,0.00,,,0.00,Wunderground v.1.15,2013-04-24 11:13:00,
2013-04-24 06:14:00,35.1,31.0,30.03,NW,323,3.0,5.0,85,0.00,,,0.00,Wunderground v.1.15,2013-04-24 11:14:00,
2013-04-24 06:16:00,35.1,31.0,30.03,NW,323,3.0,6.0,85,0.00,,,0.00,Wunderground v.1.15,2013-04-24 11:16:00,
2013-04-24 06:18:00,35.1,31.0,30.03,NW,323,3.0,6.0,85,0.00,,,0.00,Wunderground v.1.15,2013-04-24 11:18:00,
2013-04-24 06:20:00,35.1,31.0,30.03,NW,321,3.0,4.0,85,0.00,,,0.00,Wunderground v.1.15,2013-04-24 11:20:00,
2013-04-24 06:23:00,35.1,31.0,30.03,NW,320,4.0,5.0,85,0.00,,,0.00,Wunderground v.1.15,2013-04-24 11:23:00,
2013-04-24 06:24:00,35.1,31.0,30.03,NW,319,4.0,5.0,85,0.00,,,0.00,Wunderground v.1.15,2013-04-24 11:24:00,
2013-04-24 06:26:00,35.1,31.0,30.03,NW,319,4.0,5.0,85,0.00,,,0.00,Wunderground v.1.15,2013-04-24 11:26:00,
2013-04-24 06:28:00,35.1,31.0,30.03,NNW,329,4.0,5.0,85,0.00,,,0.00,Wunderground v.1.15,2013-04-24 11:28:00,
2013-04-24 06:33:00,35.0,30.9,30.03,NNW,327,3.0,5.0,85,0.00,,,0.00,Wunderground v.1.15,2013-04-24 11:33:00,
2013-04-24 06:34:00,35.0,30.9,30.03,NNW,327,3.0,5.0,85,0.00,,,0.00,Wunderground v.1.15,2013-04-24 11:34:00,
2013-04-24 06:36:00,35.0,30.9,30.03,NW,325,3.0,5.0,85,0.00,,,0.00,Wunderground v.1.15,2013-04-24 11:36:00,
2013-04-24 06:37:00,35.0,30.9,30.03,NW,325,3.0,5.0,85,0.00,,,0.00,Wunderground v.1.15,2013-04-24 11:37:00,
2013-04-24 06:40:00,35.0,31.2,30.03,NW,326,3.0,3.0,86,0.00,,,0.00,Wunderground v.1.15,2013-04-24 11:40:00,
2013-04-24 06:41:00,35.0,30.9,30.03,NW,326,2.0,3.0,85,0.00,,,0.00,Wunderground v.1.15,2013-04-24 11:41:00,
2013-04-24 06:42:00,35.0,31.2,30.03,NW,323,2.0,4.0,86,0.00,,,0.00,Wunderground v.1.15,2013-04-24 11:42:00,
2013-04-24 06:45:00,35.0,30.9,30.04,NW,322,2.0,4.0,85,0.00,,,0.00,Wunderground v.1.15,2013-04-24 11:45:00,
2013-04-24 06:47:00,35.0,30.9,30.04,NW,322,2.0,4.0,85,0.00,,,0.00,Wunderground v.1.15,2013-04-24 11:47:00,
2013-04-24 06:48:00,35.0,30.9,30.04,NW,323,2.0,4.0,85,0.00,,,0.00,Wunderground v.1.15,2013-04-24 11:48:00,
2013-04-24 06:52:00,35.0,30.9,30.04,NW,321,3.0,4.0,85,0.00,,,0.00,Wunderground v.1.15,2013-04-24 11:52:00,
2013-04-24 06:54:00,35.0,30.9,30.04,NW,321,3.0,5.0,85,0.00,,,0.00,Wunderground v.1.15,2013-04-24 11:54:00,
2013-04-24 06:55:00,35.0,30.9,30.04,NW,321,3.0,5.0,85,0.00,,,0.00,Wunderground v.1.15,2013-04-24 11:55:00,
2013-04-24 06:56:00,35.0,30.9,30.04,NW,321,3.0,5.0,85,0.00,,,0.00,Wunderground v.1.15,2013-04-24 11:56:00,
2013-04-24 06:58:00,35.0,30.9,30.04,NW,321,3.0,5.0,85,0.00,,,0.00,Wunderground v.1.15,2013-04-24 11:58:00,
2013-04-24 07:00:00,35.0,30.9,30.03,NW,321,3.0,4.0,85,0.00,,,0.00,Wunderground v.1.15,2013-04-24 12:00:00,
2013-04-24 07:01:00,35.0,30.9,30.04,NW,321,3.0,4.0,85,0.00,,,0.00,Wunderground v.1.15,2013-04-24 12:01:00,
2013-04-24 07:03:00,35.0,31.2,30.04,NW,321,2.0,4.0,86,0.00,,,0.00,Wunderground v.1.15,2013-04-24 12:03:00,
2013-04-24 07:06:00,35.1,31.3,30.04,NW,321,3.0,4.0,86,0.00,,,0.00,Wunderground v.1.15,2013-04-24 12:06:00,
2013-04-24 07:09:00,35.1,31.3,30.05,NW,322,3.0,5.0,86,0.00,,,0.00,Wunderground v.1.15,2013-04-24 12:09:00,
2013-04-24 07:10:00,35.0,31.2,30.05,NW,322,3.0,3.0,86,0.00,,,0.00,Wunderground v.1.15,2013-04-24 12:10:00,
2013-04-24 07:12:00,35.1,31.3,30.05,NW,323,3.0,6.0,86,0.00,,,0.00,Wunderground v.1.15,2013-04-24 12:12:00,
2013-04-24 07:14:00,35.0,31.2,30.05,NW,323,3.0,6.0,86,0.00,,,0.00,Wunderground v.1.15,2013-04-24 12:14:00,
2013-04-24 07:15:00,35.1,31.3,30.05,NW,323,3.0,6.0,86,0.00,,,0.00,Wunderground v.1.15,2013-04-24 12:15:00,
2013-04-24 07:16:00,35.1,31.3,30.05,NW,323,3.0,6.0,86,0.00,,,0.00,Wunderground v.1.15,2013-04-24 12:16:00,
2013-04-24 07:19:00,35.1,31.3,30.05,NW,323,2.0,6.0,86,0.00,,,0.00,Wunderground v.1.15,2013-04-24 12:19:00,
2013-04-24 07:21:00,35.1,31.3,30.06,NW,323,2.0,4.0,86,0.00,,,0.00,Wunderground v.1.15,2013-04-24 12:21:00,
2013-04-24 07:23:00,35.1,31.3,30.05,NW,323,2.0,4.0,86,0.00,,,0.00,Wunderground v.1.15,2013-04-24 12:23:00,
2013-04-24 07:27:00,35.2,31.4,30.05,NW,323,2.0,4.0,86,0.00,,,0.00,Wunderground v.1.15,2013-04-24 12:27:00,
2013-04-24 07:28:00,35.2,31.4,30.05,NW,323,2.0,4.0,86,0.00,,,0.00,Wunderground v.1.15,2013-04-24 12:28:00,
2013-04-24 07:30:00,35.2,31.4,30.06,NW,323,2.0,2.0,86,0.00,,,0.00,Wunderground v.1.15,2013-04-24 12:30:00,
2013-04-24 07:32:00,35.2,31.4,30.06,NW,323,2.0,2.0,86,0.00,,,0.00,Wunderground v.1.15,2013-04-24 12:32:00,
2013-04-24 07:33:00,35.2,31.4,30.06,NW,323,2.0,2.0,86,0.00,,,0.00,Wunderground v.1.15,2013-04-24 12:33:00,
2013-04-24 07:34:00,35.2,31.4,30.06,NW,323,2.0,3.0,86,0.00,,,0.00,Wunderground v.1.15,2013-04-24 12:34:00,
2013-04-24 07:35:00,35.2,31.4,30.06,NW,323,2.0,3.0,86,0.00,,,0.00,Wunderground v.1.15,2013-04-24 12:35:00,
2013-04-24 07:37:00,35.2,31.4,30.06,NW,323,2.0,3.0,86,0.00,,,0.00,Wunderground v.1.15,2013-04-24 12:37:00,
2013-04-24 07:39:00,35.2,31.4,30.06,NW,321,2.0,3.0,86,0.00,,,0.00,Wunderground v.1.15,2013-04-24 12:39:00,
2013-04-24 07:40:00,35.2,31.4,30.06,NW,320,2.0,3.0,86,0.00,,,0.00,Wunderground v.1.15,2013-04-24 12:40:00,
2013-04-24 07:42:00,35.2,31.4,30.05,NW,320,2.0,3.0,86,0.00,,,0.00,Wunderground v.1.15,2013-04-24 12:42:00,
2013-04-24 07:45:00,35.2,31.4,30.06,NW,323,2.0,4.0,86,0.00,,,0.00,Wunderground v.1.15,2013-04-24 12:45:00,
2013-04-24 07:46:00,35.2,31.4,30.06,NW,323,2.0,4.0,86,0.00,,,0.00,Wunderground v.1.15,2013-04-24 12:46:00,
2013-04-24 07:47:00,35.3,31.5,30.06,NW,323,2.0,4.0,86,0.00,,,0.00,Wunderground v.1.15,2013-04-24 12:47:00,
2013-04-24 07:49:00,35.3,31.5,30.06,NW,322,2.0,4.0,86,0.00,,,0.00,Wunderground v.1.15,2013-04-24 12:49:00,
2013-04-24 07:52:00,35.3,31.5,30.06,NW,322,2.0,3.0,86,0.00,,,0.00,Wunderground v.1.15,2013-04-24 12:52:00,
2013-04-24 07:53:00,35.3,31.5,30.06,NW,322,2.0,3.0,86,0.00,,,0.00,Wunderground v.1.15,2013-04-24 12:53:00,
2013-04-24 07:55:00,35.3,31.2,30.06,NW,321,2.0,3.0,85,0.00,,,0.00,Wunderground v.1.15,2013-04-24 12:55:00,
2013-04-24 07:58:00,35.4,31.3,30.06,NNW,328,3.0,4.0,85,0.00,,,0.00,Wunderground v.1.15,2013-04-24 12:58:00,
2013-04-24 08:00:00,35.5,31.4,30.07,NNW,328,3.0,3.0,85,0.00,,,0.00,Wunderground v.1.15,2013-04-24 13:00:00,
2013-04-24 08:01:00,35.5,31.7,30.07,NNW,328,3.0,3.0,86,0.00,,,0.00,Wunderground v.1.15,2013-04-24 13:01:00,
2013-04-24 08:03:00,35.5,31.4,30.06,NNW,329,3.0,7.0,85,0.00,,,0.00,Wunderground v.1.15,2013-04-24 13:03:00,
2013-04-24 08:05:00,35.5,31.4,30.06,NNW,329,3.0,7.0,85,0.00,,,0.00,Wunderground v.1.15,2013-04-24 13:05:00,
2013-04-24 08:06:00,35.6,31.5,30.06,NNW,329,3.0,7.0,85,0.00,,,0.00,Wunderground v.1.15,2013-04-24 13:06:00,
2013-04-24 08:07:00,35.6,31.5,30.06,NW,320,3.0,7.0,85,0.00,,,0.00,Wunderground v.1.15,2013-04-24 13:07:00,
2013-04-24 08:09:00,35.6,31.5,30.06,WNW,299,3.0,7.0,85,0.00,,,0.00,Wunderground v.1.15,2013-04-24 13:09:00,
2013-04-24 08:11:00,35.7,31.6,30.06,NW,325,4.0,6.0,85,0.00,,,0.00,Wunderground v.1.15,2013-04-24 13:11:00,
2013-04-24 08:14:00,35.8,31.7,30.06,NW,324,4.0,6.0,85,0.00,,,0.00,Wunderground v.1.15,2013-04-24 13:14:00,
2013-04-24 08:15:00,35.8,31.7,30.06,NNW,328,4.0,6.0,85,0.00,,,0.00,Wunderground v.1.15,2013-04-24 13:15:00,
2013-04-24 08:19:00,35.9,31.5,30.06,NW,324,4.0,6.0,84,0.00,,,0.00,Wunderground v.1.15,2013-04-24 13:19:00,
2013-04-24 08:21:00,36.0,31.6,30.06,West,270,4.0,4.0,84,0.00,,,0.00,Wunderground v.1.15,2013-04-24 13:21:00,
2013-04-24 08:22:00,36.0,31.6,30.06,NW,320,4.0,6.0,84,0.00,,,0.00,Wunderground v.1.15,2013-04-24 13:22:00,
2013-04-24 08:24:00,36.1,31.7,30.06,NW,318,4.0,6.0,84,0.00,,,0.00,Wunderground v.1.15,2013-04-24 13:24:00,
2013-04-24 08:25:00,36.1,31.7,30.06,NNW,331,4.0,6.0,84,0.00,,,0.00,Wunderground v.1.15,2013-04-24 13:25:00,
2013-04-24 08:28:00,36.2,31.8,30.06,NNW,333,4.0,7.0,84,0.00,,,0.00,Wunderground v.1.15,2013-04-24 13:28:00,
2013-04-24 08:29:00,36.3,31.6,30.06,NNW,327,5.0,7.0,83,0.00,,,0.00,Wunderground v.1.15,2013-04-24 13:29:00,
2013-04-24 08:31:00,36.3,31.6,30.06,NNW,340,5.0,7.0,83,0.00,,,0.00,Wunderground v.1.15,2013-04-24 13:31:00,
2013-04-24 08:32:00,36.3,31.6,30.06,NNW,339,5.0,7.0,83,0.00,,,0.00,Wunderground v.1.15,2013-04-24 13:32:00,
2013-04-24 08:35:00,36.4,31.7,30.06,NW,323,5.0,10.0,83,0.00,,,0.00,Wunderground v.1.15,2013-04-24 13:35:00,
2013-04-24 08:36:00,36.5,31.8,30.06,NW,323,5.0,10.0,83,0.00,,,0.00,Wunderground v.1.15,2013-04-24 13:36:00,
2013-04-24 08:37:00,36.5,31.5,30.06,NNW,338,5.0,10.0,82,0.00,,,0.00,Wunderground v.1.15,2013-04-24 13:37:00,
2013-04-24 08:41:00,36.6,31.9,30.06,NNW,344,4.0,8.0,83,0.00,,,0.00,Wunderground v.1.15,2013-04-24 13:41:00,
2013-04-24 08:42:00,36.7,32.0,30.06,NNW,340,4.0,8.0,83,0.00,,,0.00,Wunderground v.1.15,2013-04-24 13:42:00,
2013-04-24 08:43:00,36.7,32.0,30.06,NNW,340,4.0,8.0,83,0.00,,,0.00,Wunderground v.1.15,2013-04-24 13:43:00,
2013-04-24 08:44:00,36.8,32.1,30.07,NNW,340,4.0,8.0,83,0.00,,,0.00,Wunderground v.1.15,2013-04-24 13:44:00,
2013-04-24 08:46:00,36.9,31.9,30.07,NNW,332,4.0,8.0,82,0.00,,,0.00,Wunderground v.1.15,2013-04-24 13:46:00,
2013-04-24 08:48:00,36.9,31.9,30.07,NW,325,3.0,9.0,82,0.00,,,0.00,Wunderground v.1.15,2013-04-24 13:48:00,
2013-04-24 08:49:00,36.9,31.6,30.07,NW,323,4.0,10.0,81,0.00,,,0.00,Wunderground v.1.15,2013-04-24 13:49:00,
2013-04-24 08:50:00,36.9,31.6,30.07,NNW,340,4.0,6.0,81,0.00,,,0.00,Wunderground v.1.15,2013-04-24 13:50:00,
2013-04-24 08:52:00,36.9,31.3,30.07,NW,319,4.0,6.0,80,0.00,,,0.00,Wunderground v.1.15,2013-04-24 13:52:00,
2013-04-24 08:54:00,36.9,31.6,30.07,NNW,346,4.0,7.0,81,0.00,,,0.00,Wunderground v.1.15,2013-04-24 13:54:00,
2013-04-24 08:56:00,36.9,31.3,30.07,NW,325,4.0,7.0,80,0.00,,,0.00,Wunderground v.1.15,2013-04-24 13:56:00,
2013-04-24 08:58:00,36.8,31.2,30.07,WNW,299,4.0,10.0,80,0.00,,,0.00,Wunderground v.1.15,2013-04-24 13:58:00,
2013-04-24 08:59:00,36.8,30.9,30.07,NW,324,4.0,10.0,79,0.00,,,0.00,Wunderground v.1.15,2013-04-24 13:59:00,
2013-04-24 09:00:00,36.8,31.2,30.07,NW,325,4.0,4.0,80,0.00,,,0.00,Wunderground v.1.15,2013-04-24 14:00:00,
2013-04-24 09:01:00,36.8,31.2,30.07,NNW,340,4.0,7.0,80,0.00,,,0.00,Wunderground v.1.15,2013-04-24 14:01:00,
2013-04-24 09:04:00,36.9,31.3,30.07,NW,325,4.0,7.0,80,0.00,,,0.00,Wunderground v.1.15,2013-04-24 14:04:00,
2013-04-24 09:06:00,37.0,31.4,30.07,NNW,333,4.0,7.0,80,0.00,,,0.00,Wunderground v.1.15,2013-04-24 14:06:00,
2013-04-24 09:09:00,37.2,31.6,30.08,NW,324,4.0,7.0,80,0.00,,,0.00,Wunderground v.1.15,2013-04-24 14:09:00,
2013-04-24 09:10:00,37.3,31.7,30.08,NW,325,4.0,4.0,80,0.00,,,0.00,Wunderground v.1.15,2013-04-24 14:10:00,
2013-04-24 09:14:00,37.5,31.9,30.08,NNW,328,4.0,5.0,80,0.00,,,0.00,Wunderground v.1.15,2013-04-24 14:14:00,
2013-04-24 09:15:00,37.5,31.9,30.08,NW,308,4.0,7.0,80,0.00,,,0.00,Wunderground v.1.15,2013-04-24 14:15:00,
2013-04-24 09:16:00,37.6,32.0,30.08,NW,323,4.0,7.0,80,0.00,,,0.00,Wunderground v.1.15,2013-04-24 14:16:00,
2013-04-24 09:18:00,37.7,31.8,30.08,NNW,329,4.0,7.0,79,0.00,,,0.00,Wunderground v.1.15,2013-04-24 14:18:00,
2013-04-24 09:20:00,37.9,32.0,30.08,NW,319,4.0,4.0,79,0.00,,,0.00,Wunderground v.1.15,2013-04-24 14:20:00,
2013-04-24 09:22:00,38.0,32.4,30.08,NW,319,4.0,4.0,80,0.00,,,0.00,Wunderground v.1.15,2013-04-24 14:22:00,
2013-04-24 09:26:00,38.7,33.1,30.09,NNW,338,4.0,6.0,80,0.00,,,0.00,Wunderground v.1.15,2013-04-24 14:26:00,
2013-04-24 09:28:00,38.9,32.9,30.08,NW,317,4.0,6.0,79,0.00,,,0.00,Wunderground v.1.15,2013-04-24 14:28:00,
2013-04-24 09:29:00,39.1,32.8,30.09,NW,309,3.0,6.0,78,0.00,,,0.00,Wunderground v.1.15,2013-04-24 14:29:00,
2013-04-24 09:30:00,39.2,33.2,30.09,NW,319,3.0,3.0,79,0.00,,,0.00,Wunderground v.1.15,2013-04-24 14:30:00,
2013-04-24 09:33:00,39.5,32.6,30.08,NNW,339,4.0,10.0,76,0.00,,,0.01,Wunderground v.1.15,2013-04-24 14:33:00,
2013-04-24 09:34:00,39.5,32.9,30.08,West,275,4.0,10.0,77,0.00,,,0.01,Wunderground v.1.15,2013-04-24 14:34:00,
2013-04-24 09:35:00,39.6,32.7,30.09,NNW,329,5.0,10.0,76,0.00,,,0.01,Wunderground v.1.15,2013-04-24 14:35:00,
2013-04-24 09:39:00,40.0,33.4,30.08,NNW,348,5.0,10.0,77,0.00,,,0.01,Wunderground v.1.15,2013-04-24 14:39:00,
2013-04-24 09:40:00,40.1,33.5,30.09,NW,317,5.0,5.0,77,0.00,,,0.01,Wunderground v.1.15,2013-04-24 14:40:00,
2013-04-24 09:41:00,40.2,33.6,30.09,NNW,327,5.0,9.0,77,0.00,,,0.01,Wunderground v.1.15,2013-04-24 14:41:00,
2013-04-24 09:42:00,40.3,33.3,30.09,NW,318,5.0,9.0,76,0.00,,,0.01,Wunderground v.1.15,2013-04-24 14:42:00,
2013-04-24 09:46:00,40.6,33.0,30.09,NW,323,5.0,9.0,74,0.00,,,0.01,Wunderground v.1.15,2013-04-24 14:46:00,
2013-04-24 09:47:00,40.6,33.0,30.09,NW,325,5.0,9.0,74,0.00,,,0.01,Wunderground v.1.15,2013-04-24 14:47:00,
2013-04-24 09:49:00,40.6,33.0,30.09,NW,317,5.0,9.0,74,0.00,,,0.01,Wunderground v.1.15,2013-04-24 14:49:00,
2013-04-24 09:50:00,40.6,33.0,30.09,NW,326,5.0,6.0,74,0.00,,,0.01,Wunderground v.1.15,2013-04-24 14:50:00,
2013-04-24 09:52:00,40.6,33.0,30.09,NW,320,5.0,6.0,74,0.00,,,0.01,Wunderground v.1.15,2013-04-24 14:52:00,
2013-04-24 09:53:00,40.6,32.6,30.09,West,279,5.0,6.0,73,0.00,,,0.01,Wunderground v.1.15,2013-04-24 14:53:00,
2013-04-24 09:54:00,40.7,33.1,30.09,WNW,297,5.0,6.0,74,0.00,,,0.01,Wunderground v.1.15,2013-04-24 14:54:00,
2013-04-24 09:57:00,40.9,32.9,30.09,NNW,334,4.0,6.0,73,0.00,,,0.01,Wunderground v.1.15,2013-04-24 14:57:00,
2013-04-24 09:58:00,40.9,32.9,30.09,WNW,300,4.0,6.0,73,0.00,,,0.01,Wunderground v.1.15,2013-04-24 14:58:00,
2013-04-24 10:00:00,41.1,33.4,30.09,WNW,284,4.0,4.0,74,0.00,,,0.01,Wunderground v.1.15,2013-04-24 15:00:00,
2013-04-24 10:04:00,41.4,32.7,30.09,NNW,346,3.0,5.0,71,0.00,,,0.01,Wunderground v.1.15,2013-04-24 15:04:00,
2013-04-24 10:05:00,41.4,32.7,30.09,NW,309,3.0,5.0,71,0.00,,,0.01,Wunderground v.1.15,2013-04-24 15:05:00,
2013-04-24 10:10:00,41.8,33.8,30.09,North,360,4.0,4.0,73,0.00,,,0.01,Wunderground v.1.15,2013-04-24 15:10:00,
2013-04-24 10:11:00,41.8,33.8,30.09,North,355,4.0,4.0,73,0.00,,,0.01,Wunderground v.1.15,2013-04-24 15:11:00,
2013-04-24 10:13:00,42.0,33.6,30.08,WSW,249,4.0,5.0,72,0.00,,,0.01,Wunderground v.1.15,2013-04-24 15:13:00,
2013-04-24 10:15:00,42.2,33.5,30.08,WNW,301,4.0,5.0,71,0.00,,,0.01,Wunderground v.1.15,2013-04-24 15:15:00,
2013-04-24 10:20:00,42.5,33.0,30.09,West,281,3.0,3.0,69,0.00,,,0.01,Wunderground v.1.15,2013-04-24 15:20:00,
2013-04-24 10:22:00,42.5,32.7,30.09,NNW,327,3.0,3.0,68,0.00,,,0.01,Wunderground v.1.15,2013-04-24 15:22:00,
2013-04-24 10:24:00,42.5,32.7,30.09,NNW,329,4.0,4.0,68,0.00,,,0.01,Wunderground v.1.15,2013-04-24 15:24:00,
2013-04-24 10:25:00,42.5,32.7,30.09,West,281,4.0,5.0,68,0.00,,,0.01,Wunderground v.1.15,2013-04-24 15:25:00,
2013-04-24 10:28:00,42.4,32.6,30.09,NW,325,3.0,5.0,68,0.00,,,0.01,Wunderground v.1.15,2013-04-24 15:28:00,
2013-04-24 10:31:00,42.7,33.9,30.09,WSW,257,4.0,4.0,71,0.00,,,0.01,Wunderground v.1.15,2013-04-24 15:31:00,
2013-04-24 10:32:00,42.7,33.2,30.09,WSW,257,4.0,4.0,69,0.00,,,0.01,Wunderground v.1.15,2013-04-24 15:32:00,
2013-04-24 10:33:00,42.9,33.4,30.09,NW,320,4.0,6.0,69,0.00,,,0.01,Wunderground v.1.15,2013-04-24 15:33:00,
2013-04-24 10:36:00,43.2,33.0,30.09,NNW,333,4.0,9.0,67,0.00,,,0.01,Wunderground v.1.15,2013-04-24 15:36:00,
2013-04-24 10:37:00,43.2,33.0,30.09,NW,311,5.0,9.0,67,0.00,,,0.01,Wunderground v.1.15,2013-04-24 15:37:00,
2013-04-24 10:38:00,43.2,32.6,30.09,NW,324,5.0,9.0,66,0.00,,,0.01,Wunderground v.1.15,2013-04-24 15:38:00,
2013-04-24 10:41:00,43.3,32.3,30.09,NW,321,5.0,8.0,65,0.00,,,0.01,Wunderground v.1.15,2013-04-24 15:41:00,
2013-04-24 10:43:00,43.4,32.0,30.09,NNW,339,6.0,8.0,64,0.00,,,0.01,Wunderground v.1.15,2013-04-24 15:43:00,
2013-04-24 10:44:00,43.4,31.6,30.08,NNW,328,5.0,8.0,63,0.00,,,0.01,Wunderground v.1.15,2013-04-24 15:44:00,
2013-04-24 10:45:00,43.5,32.9,30.08,NNW,336,5.0,8.0,66,0.00,,,0.01,Wunderground v.1.15,2013-04-24 15:45:00,
2013-04-24 10:47:00,43.6,33.4,30.08,NNW,336,5.0,8.0,67,0.00,,,0.01,Wunderground v.1.15,2013-04-24 15:47:00,
2013-04-24 10:49:00,43.7,32.7,30.08,NNW,333,5.0,11.0,65,0.00,,,0.01,Wunderground v.1.15,2013-04-24 15:49:00,
2013-04-24 10:50:00,43.7,31.9,30.08,NNW,339,5.0,11.0,63,0.00,,,0.01,Wunderground v.1.15,2013-04-24 15:50:00,
2013-04-24 10:51:00,43.6,31.4,30.08,NNW,342,5.0,11.0,62,0.00,,,0.01,Wunderground v.1.15,2013-04-24 15:51:00,
2013-04-24 10:52:00,43.6,31.4,30.08,NNW,339,6.0,11.0,62,0.00,,,0.01,Wunderground v.1.15,2013-04-24 15:52:00,
2013-04-24 10:55:00,43.3,31.1,30.08,NNW,336,5.0,11.0,62,0.00,,,0.01,Wunderground v.1.15,2013-04-24 15:55:00,
2013-04-24 10:58:00,43.2,30.2,30.08,NNW,335,6.0,11.0,60,0.00,,,0.01,Wunderground v.1.15,2013-04-24 15:58:00,
2013-04-24 10:59:00,43.1,30.6,30.08,NW,325,5.0,11.0,61,0.00,,,0.01,Wunderground v.1.15,2013-04-24 15:59:00,
2013-04-24 11:04:00,43.2,31.1,30.08,NNW,329,5.0,10.0,62,0.00,,,0.01,Wunderground v.1.15,2013-04-24 16:04:00,
2013-04-24 11:05:00,43.3,31.1,30.08,NW,308,5.0,10.0,62,0.00,,,0.01,Wunderground v.1.15,2013-04-24 16:05:00,
2013-04-24 11:06:00,43.3,31.1,30.08,NW,315,5.0,10.0,62,0.00,,,0.01,Wunderground v.1.15,2013-04-24 16:06:00,
2013-04-24 11:07:00,43.4,30.8,30.08,NNW,336,5.0,10.0,61,0.00,,,0.01,Wunderground v.1.15,2013-04-24 16:07:00,
2013-04-24 11:08:00,43.4,31.6,30.08,NNW,333,5.0,10.0,63,0.00,,,0.01,Wunderground v.1.15,2013-04-24 16:08:00,
2013-04-24 11:10:00,43.5,30.9,30.08,NW,317,5.0,5.0,61,0.00,,,0.01,Wunderground v.1.15,2013-04-24 16:10:00,
2013-04-24 11:14:00,43.3,30.3,30.08,NW,317,5.0,6.0,60,0.00,,,0.01,Wunderground v.1.15,2013-04-24 16:14:00,
2013-04-24 11:15:00,43.2,30.2,30.08,NNW,333,5.0,11.0,60,0.00,,,0.01,Wunderground v.1.15,2013-04-24 16:15:00,
2013-04-24 11:16:00,43.2,30.2,30.08,NNW,340,5.0,11.0,60,0.00,,,0.01,Wunderground v.1.15,2013-04-24 16:16:00,
2013-04-24 11:18:00,43.4,30.4,30.08,NNW,329,5.0,11.0,60,0.00,,,0.01,Wunderground v.1.15,2013-04-24 16:18:00,
2013-04-24 11:19:00,43.5,30.5,30.08,WNW,300,5.0,11.0,60,0.00,,,0.01,Wunderground v.1.15,2013-04-24 16:19:00,
2013-04-24 11:20:00,43.6,31.0,30.08,WNW,298,4.0,9.0,61,0.00,,,0.01,Wunderground v.1.15,2013-04-24 16:20:00,
2013-04-24 11:25:00,43.4,29.6,30.08,NNW,348,5.0,9.0,58,0.00,,,0.01,Wunderground v.1.15,2013-04-24 16:25:00,
2013-04-24 11:28:00,43.4,30.4,30.08,NNW,332,5.0,9.0,60,0.00,,,0.01,Wunderground v.1.15,2013-04-24 16:28:00,
2013-04-24 11:29:00,43.5,30.1,30.08,WSW,242,5.0,9.0,59,0.00,,,0.01,Wunderground v.1.15,2013-04-24 16:29:00,
2013-04-24 11:30:00,43.8,31.6,30.08,WSW,242,5.0,8.0,62,0.00,,,0.01,Wunderground v.1.15,2013-04-24 16:30:00,
2013-04-24 11:31:00,43.8,31.6,30.08,WSW,251,5.0,8.0,62,0.00,,,0.01,Wunderground v.1.15,2013-04-24 16:31:00,
2013-04-24 11:32:00,44.0,31.8,30.08,WSW,245,4.0,8.0,62,0.00,,,0.01,Wunderground v.1.15,2013-04-24 16:32:00,
2013-04-24 11:36:00,44.6,32.0,30.08,NW,321,4.0,8.0,61,0.00,,,0.01,Wunderground v.1.15,2013-04-24 16:36:00,
2013-04-24 11:37:00,44.6,30.7,30.08,NW,321,4.0,8.0,58,0.00,,,0.01,Wunderground v.1.15,2013-04-24 16:37:00,
2013-04-24 11:39:00,44.8,32.2,30.08,NNW,327,4.0,8.0,61,0.00,,,0.01,Wunderground v.1.15,2013-04-24 16:39:00,
2013-04-24 11:41:00,44.8,31.3,30.08,WNW,301,4.0,11.0,59,0.00,,,0.01,Wunderground v.1.15,2013-04-24 16:41:00,
2013-04-24 11:42:00,44.8,31.3,30.08,NW,326,4.0,11.0,59,0.00,,,0.01,Wunderground v.1.15,2013-04-24 16:42:00,
2013-04-24 11:46:00,44.8,31.3,30.08,NW,318,4.0,11.0,59,0.00,,,0.01,Wunderground v.1.15,2013-04-24 16:46:00,
2013-04-24 11:48:00,44.6,30.3,30.08,NW,314,4.0,11.0,57,0.00,,,0.01,Wunderground v.1.15,2013-04-24 16:48:00,
2013-04-24 11:49:00,44.5,30.2,30.08,NW,315,4.0,11.0,57,0.00,,,0.01,Wunderground v.1.15,2013-04-24 16:49:00,
2013-04-24 11:50:00,44.4,31.0,30.08,NW,308,4.0,10.0,59,0.00,,,0.01,Wunderground v.1.15,2013-04-24 16:50:00,
2013-04-24 11:52:00,44.4,30.5,30.08,NNW,342,5.0,10.0,58,0.00,,,0.01,Wunderground v.1.15,2013-04-24 16:52:00,
2013-04-24 11:54:00,44.3,29.6,30.08,North,355,4.0,10.0,56,0.00,,,0.01,Wunderground v.1.15,2013-04-24 16:54:00,
2013-04-24 11:57:00,44.6,32.8,30.08,WSW,244,4.0,10.0,63,0.00,,,0.01,Wunderground v.1.15,2013-04-24 16:57:00,
2013-04-24 11:58:00,44.8,33.0,30.08,WSW,258,4.0,10.0,63,0.00,,,0.01,Wunderground v.1.15,2013-04-24 16:58:00,
2013-04-24 12:00:00,45.1,30.8,30.08,North,11,4.0,4.0,57,0.00,,,0.01,Wunderground v.1.15,2013-04-24 17:00:00,
2013-04-24 12:02:00,45.1,31.2,30.08,NNW,343,3.0,8.0,58,0.00,,,0.01,Wunderground v.1.15,2013-04-24 17:02:00,
2013-04-24 12:03:00,45.1,30.3,30.08,NW,309,4.0,8.0,56,0.00,,,0.01,Wunderground v.1.15,2013-04-24 17:03:00,
2013-04-24 12:04:00,45.1,30.3,30.08,NW,308,4.0,8.0,56,0.00,,,0.01,Wunderground v.1.15,2013-04-24 17:04:00,
2013-04-24 12:06:00,45.1,31.2,30.08,NNW,339,4.0,8.0,58,0.00,,,0.01,Wunderground v.1.15,2013-04-24 17:06:00,
2013-04-24 12:07:00,45.1,29.9,30.08,NNW,336,4.0,8.0,55,0.00,,,0.01,Wunderground v.1.15,2013-04-24 17:07:00,
2013-04-24 12:09:00,45.2,32.5,30.08,West,273,4.0,8.0,61,0.00,,,0.01,Wunderground v.1.15,2013-04-24 17:09:00,
2013-04-24 12:12:00,45.6,32.9,30.08,WSW,249,4.0,6.0,61,0.00,,,0.01,Wunderground v.1.15,2013-04-24 17:12:00,
2013-04-24 12:14:00,45.8,31.9,30.08,NW,315,4.0,6.0,58,0.00,,,0.01,Wunderground v.1.15,2013-04-24 17:14:00,
2013-04-24 12:15:00,45.8,31.0,30.08,WNW,301,4.0,6.0,56,0.00,,,0.01,Wunderground v.1.15,2013-04-24 17:15:00,
2013-04-24 12:18:00,45.8,30.5,30.08,NW,323,4.0,6.0,55,0.00,,,0.01,Wunderground v.1.15,2013-04-24 17:18:00,
2013-04-24 12:20:00,45.8,30.1,30.08,WNW,303,3.0,4.0,54,0.00,,,0.01,Wunderground v.1.15,2013-04-24 17:20:00,
2013-04-24 12:21:00,45.8,30.5,30.08,WNW,297,4.0,4.0,55,0.00,,,0.01,Wunderground v.1.15,2013-04-24 17:21:00,
2013-04-24 12:22:00,45.8,30.1,30.08,North,355,3.0,10.0,54,0.00,,,0.01,Wunderground v.1.15,2013-04-24 17:22:00,
2013-04-24 12:27:00,45.5,31.1,30.08,SW,234,4.0,10.0,57,0.00,,,0.01,Wunderground v.1.15,2013-04-24 17:27:00,
2013-04-24 12:31:00,45.9,31.9,30.08,NNW,328,4.0,5.0,58,0.00,,,0.01,Wunderground v.1.15,2013-04-24 17:31:00,
2013-04-24 12:32:00,46.0,30.7,30.08,NW,318,4.0,5.0,55,0.00,,,0.01,Wunderground v.1.15,2013-04-24 17:32:00,
2013-04-24 12:34:00,46.0,31.2,30.08,WSW,256,3.0,5.0,56,0.00,,,0.01,Wunderground v.1.15,2013-04-24 17:34:00,
2013-04-24 12:35:00,46.1,32.1,30.08,WSW,251,4.0,7.0,58,0.00,,,0.01,Wunderground v.1.15,2013-04-24 17:35:00,
2013-04-24 12:37:00,46.2,31.4,30.08,WSW,240,4.0,7.0,56,0.00,,,0.01,Wunderground v.1.15,2013-04-24 17:37:00,
2013-04-24 12:39:00,46.2,31.8,30.08,WSW,250,4.0,7.0,57,0.00,,,0.01,Wunderground v.1.15,2013-04-24 17:39:00,
2013-04-24 12:40:00,46.2,32.2,30.08,WSW,250,3.0,12.0,58,0.00,,,0.01,Wunderground v.1.15,2013-04-24 17:40:00,
2013-04-24 12:43:00,46.3,32.3,30.08,NNW,338,4.0,12.0,58,0.00,,,0.01,Wunderground v.1.15,2013-04-24 17:43:00,
2013-04-24 12:47:00,46.3,31.9,30.08,SW,229,4.0,12.0,57,0.00,,,0.01,Wunderground v.1.15,2013-04-24 17:47:00,
2013-04-24 12:48:00,46.3,32.3,30.08,WSW,244,4.0,12.0,58,0.00,,,0.01,Wunderground v.1.15,2013-04-24 17:48:00,
2013-04-24 12:52:00,46.3,31.9,30.08,NW,316,4.0,4.0,57,0.00,,,0.01,Wunderground v.1.15,2013-04-24 17:52:00,
2013-04-24 12:53:00,46.2,30.5,30.08,NW,317,4.0,4.0,54,0.00,,,0.01,Wunderground v.1.15,2013-04-24 17:53:00,
2013-04-24 12:54:00,46.2,30.9,30.08,NW,321,3.0,4.0,55,0.00,,,0.01,Wunderground v.1.15,2013-04-24 17:54:00,
2013-04-24 12:57:00,46.3,34.0,30.08,WSW,240,3.0,9.0,62,0.00,,,0.01,Wunderground v.1.15,2013-04-24 17:57:00,
2013-04-24 12:59:00,46.6,33.4,30.08,WSW,240,4.0,9.0,60,0.00,,,0.01,Wunderground v.1.15,2013-04-24 17:59:00,
2013-04-24 13:00:00,46.8,32.8,30.08,WSW,252,4.0,6.0,58,0.00,,,0.01,Wunderground v.1.15,2013-04-24 18:00:00,
2013-04-24 13:03:00,47.0,32.1,30.08,SW,234,5.0,6.0,56,0.00,,,0.01,Wunderground v.1.15,2013-04-24 18:03:00,
2013-04-24 13:05:00,47.2,30.9,30.08,WSW,252,5.0,6.0,53,0.00,,,0.01,Wunderground v.1.15,2013-04-24 18:05:00,
2013-04-24 13:06:00,47.2,30.9,30.08,SSW,207,5.0,6.0,53,0.00,,,0.01,Wunderground v.1.15,2013-04-24 18:06:00,
2013-04-24 13:08:00,47.2,33.6,30.08,WSW,254,5.0,6.0,59,0.00,,,0.01,Wunderground v.1.15,2013-04-24 18:08:00,
2013-04-24 13:10:00,47.4,32.0,30.09,WSW,240,5.0,9.0,55,0.00,,,0.01,Wunderground v.1.15,2013-04-24 18:10:00,
2013-04-24 13:12:00,47.5,33.4,30.09,SW,228,5.0,9.0,58,0.00,,,0.01,Wunderground v.1.15,2013-04-24 18:12:00,
2013-04-24 13:13:00,47.6,32.2,30.09,WSW,252,5.0,9.0,55,0.00,,,0.01,Wunderground v.1.15,2013-04-24 18:13:00,
2013-04-24 13:15:00,47.6,31.3,30.08,WSW,246,5.0,9.0,53,0.00,,,0.01,Wunderground v.1.15,2013-04-24 18:15:00,
2013-04-24 13:17:00,47.6,31.8,30.08,SW,215,5.0,9.0,54,0.00,,,0.01,Wunderground v.1.15,2013-04-24 18:17:00,
2013-04-24 13:18:00,47.7,32.3,30.08,WSW,249,5.0,9.0,55,0.00,,,0.01,Wunderground v.1.15,2013-04-24 18:18:00,
2013-04-24 13:22:00,47.8,31.9,30.08,WSW,244,5.0,7.0,54,0.00,,,0.01,Wunderground v.1.15,2013-04-24 18:22:00,
2013-04-24 13:25:00,47.8,31.9,30.08,NW,324,5.0,7.0,54,0.00,,,0.01,Wunderground v.1.15,2013-04-24 18:25:00,
2013-04-24 13:27:00,47.7,31.4,30.08,WNW,297,5.0,7.0,53,0.00,,,0.01,Wunderground v.1.15,2013-04-24 18:27:00,
2013-04-24 13:28:00,47.7,30.0,30.08,WSW,241,5.0,7.0,50,0.00,,,0.01,Wunderground v.1.15,2013-04-24 18:28:00,
2013-04-24 13:29:00,47.6,31.3,30.08,WSW,240,5.0,7.0,53,0.00,,,0.01,Wunderground v.1.15,2013-04-24 18:29:00,
2013-04-24 13:31:00,47.6,31.3,30.08,NNW,327,5.0,12.0,53,0.00,,,0.01,Wunderground v.1.15,2013-04-24 18:31:00,
2013-04-24 13:33:00,47.6,32.7,30.08,SW,227,5.0,12.0,56,0.00,,,0.01,Wunderground v.1.15,2013-04-24 18:33:00,
2013-04-24 13:36:00,47.5,32.6,30.08,NNW,330,5.0,12.0,56,0.00,,,0.01,Wunderground v.1.15,2013-04-24 18:36:00,
2013-04-24 13:37:00,47.6,34.0,30.08,West,261,5.0,12.0,59,0.00,,,0.01,Wunderground v.1.15,2013-04-24 18:37:00,
2013-04-24 13:38:00,47.7,32.8,30.08,West,261,5.0,12.0,56,0.00,,,0.01,Wunderground v.1.15,2013-04-24 18:38:00,
2013-04-24 13:42:00,47.8,30.5,30.08,West,262,5.0,6.0,51,0.00,,,0.01,Wunderground v.1.15,2013-04-24 18:42:00,
2013-04-24 13:43:00,47.8,31.0,30.08,WSW,252,5.0,6.0,52,0.00,,,0.01,Wunderground v.1.15,2013-04-24 18:43:00,
2013-04-24 13:44:00,47.8,31.5,30.08,WSW,243,5.0,6.0,53,0.00,,,0.01,Wunderground v.1.15,2013-04-24 18:44:00,
2013-04-24 13:45:00,47.8,31.9,30.08,WSW,252,5.0,6.0,54,0.00,,,0.01,Wunderground v.1.15,2013-04-24 18:45:00,
2013-04-24 13:48:00,47.9,31.1,30.08,WSW,238,5.0,6.0,52,0.00,,,0.01,Wunderground v.1.15,2013-04-24 18:48:00,
2013-04-24 13:50:00,47.9,31.1,30.08,SSW,209,5.0,5.0,52,0.00,,,0.01,Wunderground v.1.15,2013-04-24 18:50:00,
2013-04-24 13:52:00,48.0,32.6,30.09,WSW,257,5.0,9.0,55,0.00,,,0.01,Wunderground v.1.15,2013-04-24 18:52:00,
2013-04-24 13:53:00,48.1,34.0,30.08,WSW,252,5.0,9.0,58,0.00,,,0.01,Wunderground v.1.15,2013-04-24 18:53:00,
2013-04-24 13:57:00,48.5,32.6,30.09,NNW,336,5.0,9.0,54,0.00,,,0.01,Wunderground v.1.15,2013-04-24 18:57:00,
2013-04-24 13:58:00,48.5,34.4,30.08,NNW,336,5.0,9.0,58,0.00,,,0.01,Wunderground v.1.15,2013-04-24 18:58:00,
2013-04-24 13:59:00,48.6,33.1,30.08,NW,323,5.0,9.0,55,0.00,,,0.01,Wunderground v.1.15,2013-04-24 18:59:00,
2013-04-24 14:03:00,48.7,30.9,30.08,SW,234,5.0,10.0,50,0.00,,,0.01,Wunderground v.1.15,2013-04-24 19:03:00,
2013-04-24 14:04:00,48.8,32.4,30.08,WSW,256,5.0,10.0,53,0.00,,,0.01,Wunderground v.1.15,2013-04-24 19:04:00,
2013-04-24 14:06:00,48.8,31.5,30.09,NNW,337,4.0,10.0,51,0.00,,,0.01,Wunderground v.1.15,2013-04-24 19:06:00,
2013-04-24 14:07:00,48.7,32.3,30.09,West,275,4.0,10.0,53,0.00,,,0.01,Wunderground v.1.15,2013-04-24 19:07:00,
2013-04-24 14:08:00,48.7,32.3,30.08,NNW,336,4.0,10.0,53,0.00,,,0.01,Wunderground v.1.15,2013-04-24 19:08:00,
2013-04-24 14:09:00,48.7,32.3,30.09,WSW,256,4.0,10.0,53,0.00,,,0.01,Wunderground v.1.15,2013-04-24 19:09:00,
2013-04-24 14:13:00,48.7,31.8,30.09,NW,310,3.0,4.0,52,0.00,,,0.01,Wunderground v.1.15,2013-04-24 19:13:00,
2013-04-24 14:15:00,48.5,32.1,30.08,NNW,329,4.0,4.0,53,0.00,,,0.01,Wunderground v.1.15,2013-04-24 19:15:00,
2013-04-24 14:17:00,48.5,32.6,30.08,WNW,287,3.0,4.0,54,0.00,,,0.01,Wunderground v.1.15,2013-04-24 19:17:00,
2013-04-24 14:18:00,48.5,33.9,30.08,NNW,327,3.0,4.0,57,0.00,,,0.01,Wunderground v.1.15,2013-04-24 19:18:00,
2013-04-24 14:21:00,48.7,33.7,30.08,WSW,245,4.0,8.0,56,0.00,,,0.01,Wunderground v.1.15,2013-04-24 19:21:00,
2013-04-24 14:22:00,48.7,34.1,30.08,WSW,257,4.0,8.0,57,0.00,,,0.01,Wunderground v.1.15,2013-04-24 19:22:00,
2013-04-24 14:25:00,49.0,33.1,30.08,WNW,290,4.0,8.0,54,0.00,,,0.01,Wunderground v.1.15,2013-04-24 19:25:00,
2013-04-24 14:26:00,49.1,32.7,30.08,West,273,4.0,8.0,53,0.00,,,0.01,Wunderground v.1.15,2013-04-24 19:26:00,
2013-04-24 14:28:00,49.2,34.2,30.08,SW,228,4.0,8.0,56,0.00,,,0.01,Wunderground v.1.15,2013-04-24 19:28:00,
2013-04-24 14:30:00,49.5,33.1,30.08,WSW,257,4.0,4.0,53,0.00,,,0.01,Wunderground v.1.15,2013-04-24 19:30:00,
2013-04-24 14:33:00,49.6,33.6,30.08,SW,234,5.0,6.0,54,0.00,,,0.01,Wunderground v.1.15,2013-04-24 19:33:00,
2013-04-24 14:34:00,49.6,32.7,30.08,WSW,244,5.0,6.0,52,0.00,,,0.01,Wunderground v.1.15,2013-04-24 19:34:00,
2013-04-24 14:37:00,49.6,32.7,30.08,SW,234,6.0,6.0,52,0.00,,,0.01,Wunderground v.1.15,2013-04-24 19:37:00,
2013-04-24 14:39:00,49.4,33.0,30.08,SW,231,5.0,6.0,53,0.00,,,0.01,Wunderground v.1.15,2013-04-24 19:39:00,
2013-04-24 14:40:00,49.3,33.3,30.08,North,349,5.0,5.0,54,0.00,,,0.01,Wunderground v.1.15,2013-04-24 19:40:00,
2013-04-24 14:41:00,49.3,32.9,30.08,WSW,238,5.0,5.0,53,0.00,,,0.01,Wunderground v.1.15,2013-04-24 19:41:00,
2013-04-24 14:42:00,49.3,34.3,30.08,WSW,238,5.0,5.0,56,0.00,,,0.01,Wunderground v.1.15,2013-04-24 19:42:00,
2013-04-24 14:44:00,49.4,32.5,30.08,WSW,252,4.0,5.0,52,0.00,,,0.01,Wunderground v.1.15,2013-04-24 19:44:00,
2013-04-24 14:45:00,49.4,33.4,30.08,West,276,4.0,5.0,54,0.00,,,0.01,Wunderground v.1.15,2013-04-24 19:45:00,
2013-04-24 14:48:00,49.5,34.4,30.08,SW,234,3.0,7.0,56,0.00,,,0.01,Wunderground v.1.15,2013-04-24 19:48:00,
2013-04-24 14:51:00,49.7,34.2,30.08,WSW,247,4.0,6.0,55,0.00,,,0.01,Wunderground v.1.15,2013-04-24 19:51:00,
2013-04-24 14:53:00,49.9,33.4,30.08,WSW,242,4.0,6.0,53,0.00,,,0.01,Wunderground v.1.15,2013-04-24 19:53:00,
2013-04-24 14:56:00,50.1,33.6,30.09,SW,223,5.0,8.0,53,0.00,,,0.01,Wunderground v.1.15,2013-04-24 19:56:00,
2013-04-24 14:57:00,50.0,32.6,30.08,WSW,244,6.0,8.0,51,0.00,,,0.01,Wunderground v.1.15,2013-04-24 19:57:00,
2013-04-24 14:58:00,50.1,33.6,30.08,WSW,239,6.0,8.0,53,0.00,,,0.01,Wunderground v.1.15,2013-04-24 19:58:00,
2013-04-24 14:59:00,50.1,33.6,30.09,SW,234,6.0,8.0,53,0.00,,,0.01,Wunderground v.1.15,2013-04-24 19:59:00,
2013-04-24 15:03:00,50.3,34.7,30.08,WSW,244,6.0,6.0,55,0.00,,,0.01,Wunderground v.1.15,2013-04-24 20:03:00,
2013-04-24 15:04:00,50.3,33.8,30.09,North,349,5.0,6.0,53,0.00,,,0.01,Wunderground v.1.15,2013-04-24 20:04:00,
2013-04-24 15:05:00,50.3,32.8,30.08,NW,312,5.0,6.0,51,0.00,,,0.01,Wunderground v.1.15,2013-04-24 20:05:00,
2013-04-24 15:06:00,50.2,31.2,30.08,NW,304,5.0,6.0,48,0.00,,,0.01,Wunderground v.1.15,2013-04-24 20:06:00,
2013-04-24 15:08:00,50.1,32.7,30.08,SW,220,5.0,6.0,51,0.00,,,0.01,Wunderground v.1.15,2013-04-24 20:08:00,
2013-04-24 15:09:00,50.1,32.7,30.08,SW,227,5.0,8.0,51,0.00,,,0.01,Wunderground v.1.15,2013-04-24 20:09:00,
2013-04-24 15:11:00,50.2,33.7,30.08,WSW,254,5.0,7.0,53,0.00,,,0.01,Wunderground v.1.15,2013-04-24 20:11:00,
2013-04-24 15:16:00,50.5,33.0,30.08,SW,221,6.0,10.0,51,0.00,,,0.01,Wunderground v.1.15,2013-04-24 20:16:00,
2013-04-24 15:17:00,50.5,34.0,30.08,WSW,256,6.0,10.0,53,0.00,,,0.01,Wunderground v.1.15,2013-04-24 20:17:00,
2013-04-24 15:18:00,50.6,33.1,30.08,WSW,247,6.0,10.0,51,0.00,,,0.01,Wunderground v.1.15,2013-04-24 20:18:00,
2013-04-24 15:21:00,50.7,32.7,30.08,WSW,252,5.0,5.0,50,0.00,,,0.01,Wunderground v.1.15,2013-04-24 20:21:00,
2013-04-24 15:22:00,50.7,32.7,30.08,WSW,254,4.0,7.0,50,0.00,,,0.01,Wunderground v.1.15,2013-04-24 20:22:00,
2013-04-24 15:25:00,50.7,31.2,30.08,WNW,287,4.0,7.0,47,0.00,,,0.01,Wunderground v.1.15,2013-04-24 20:25:00,
2013-04-24 15:26:00,50.7,33.2,30.08,West,268,4.0,7.0,51,0.00,,,0.01,Wunderground v.1.15,2013-04-24 20:26:00,
2013-04-24 15:27:00,50.8,33.3,30.08,West,268,4.0,7.0,51,0.00,,,0.01,Wunderground v.1.15,2013-04-24 20:27:00,
2013-04-24 15:29:00,50.8,34.3,30.08,WSW,252,4.0,7.0,53,0.00,,,0.01,Wunderground v.1.15,2013-04-24 20:29:00,
2013-04-24 15:32:00,51.1,34.1,30.08,WSW,253,4.0,7.0,52,0.00,,,0.01,Wunderground v.1.15,2013-04-24 20:32:00,
2013-04-24 15:34:00,51.2,34.2,30.08,SW,217,5.0,9.0,52,0.00,,,0.01,Wunderground v.1.15,2013-04-24 20:34:00,
2013-04-24 15:35:00,51.3,35.2,30.08,SW,236,5.0,9.0,54,0.00,,,0.01,Wunderground v.1.15,2013-04-24 20:35:00,
2013-04-24 15:38:00,51.4,34.8,30.08,WSW,248,5.0,9.0,53,0.00,,,0.01,Wunderground v.1.15,2013-04-24 20:38:00,
2013-04-24 15:41:00,51.4,32.9,30.08,SW,214,6.0,7.0,49,0.00,,,0.01,Wunderground v.1.15,2013-04-24 20:41:00,
2013-04-24 15:42:00,51.4,32.9,30.08,SW,226,6.0,7.0,49,0.00,,,0.01,Wunderground v.1.15,2013-04-24 20:42:00,
2013-04-24 15:43:00,51.4,33.4,30.08,SW,222,6.0,7.0,50,0.00,,,0.01,Wunderground v.1.15,2013-04-24 20:43:00,
2013-04-24 15:45:00,51.5,34.0,30.08,SW,234,5.0,7.0,51,0.00,,,0.01,Wunderground v.1.15,2013-04-24 20:45:00,
2013-04-24 15:48:00,51.5,30.8,30.08,WSW,251,6.0,7.0,45,0.00,,,0.01,Wunderground v.1.15,2013-04-24 20:48:00,
2013-04-24 15:51:00,51.4,31.8,30.08,SSW,211,6.0,9.0,47,0.00,,,0.01,Wunderground v.1.15,2013-04-24 20:51:00,
2013-04-24 15:52:00,51.4,31.8,30.08,SSW,209,6.0,9.0,47,0.00,,,0.01,Wunderground v.1.15,2013-04-24 20:52:00,
2013-04-24 15:54:00,51.4,33.4,30.08,WSW,243,6.0,9.0,50,0.00,,,0.01,Wunderground v.1.15,2013-04-24 20:54:00,
2013-04-24 15:58:00,51.4,32.9,30.08,WSW,238,6.0,9.0,49,0.00,,,0.01,Wunderground v.1.15,2013-04-24 20:58:00,
2013-04-24 15:59:00,51.5,33.5,30.08,WSW,258,6.0,9.0,50,0.00,,,0.01,Wunderground v.1.15,2013-04-24 20:59:00,
2013-04-24 16:00:00,51.5,31.9,30.08,WSW,249,5.0,5.0,47,0.00,,,0.01,Wunderground v.1.15,2013-04-24 21:00:00,
2013-04-24 16:03:00,51.6,33.6,30.08,SW,219,5.0,7.0,50,0.00,,,0.01,Wunderground v.1.15,2013-04-24 21:03:00,
2013-04-24 16:05:00,51.7,32.1,30.08,WSW,252,5.0,7.0,47,0.00,,,0.01,Wunderground v.1.15,2013-04-24 21:05:00,
2013-04-24 16:06:00,51.7,32.6,30.08,WSW,246,5.0,7.0,48,0.00,,,0.01,Wunderground v.1.15,2013-04-24 21:06:00,
2013-04-24 16:07:00,51.7,32.6,30.08,WSW,249,5.0,7.0,48,0.00,,,0.01,Wunderground v.1.15,2013-04-24 21:07:00,
2013-04-24 16:10:00,51.7,31.0,30.08,WSW,244,5.0,5.0,45,0.00,,,0.01,Wunderground v.1.15,2013-04-24 21:10:00,
2013-04-24 16:11:00,51.7,31.0,30.07,SW,222,5.0,5.0,45,0.00,,,0.01,Wunderground v.1.15,2013-04-24 21:11:00,
2013-04-24 16:16:00,51.6,32.5,30.07,SW,231,5.0,10.0,48,0.00,,,0.01,Wunderground v.1.15,2013-04-24 21:16:00,
2013-04-24 16:17:00,51.6,32.5,30.07,SSW,209,6.0,10.0,48,0.00,,,0.01,Wunderground v.1.15,2013-04-24 21:17:00,
2013-04-24 16:19:00,51.6,30.4,30.07,SSW,205,6.0,10.0,44,0.00,,,0.01,Wunderground v.1.15,2013-04-24 21:19:00,
2013-04-24 16:21:00,51.7,32.6,30.07,WSW,241,6.0,6.0,48,0.00,,,0.01,Wunderground v.1.15,2013-04-24 21:21:00,
2013-04-24 16:25:00,51.9,32.3,30.07,SW,219,6.0,7.0,47,0.00,,,0.01,Wunderground v.1.15,2013-04-24 21:25:00,
2013-04-24 16:26:00,51.9,33.8,30.07,SW,220,6.0,7.0,50,0.00,,,0.01,Wunderground v.1.15,2013-04-24 21:26:00,
2013-04-24 16:27:00,51.9,33.3,30.07,SW,215,6.0,7.0,49,0.00,,,0.01,Wunderground v.1.15,2013-04-24 21:27:00,
2013-04-24 16:28:00,51.9,32.3,30.07,SSW,213,6.0,7.0,47,0.00,,,0.01,Wunderground v.1.15,2013-04-24 21:28:00,
2013-04-24 16:32:00,51.9,32.3,30.07,WSW,247,6.0,6.0,47,0.00,,,0.01,Wunderground v.1.15,2013-04-24 21:32:00,
2013-04-24 16:33:00,51.9,32.3,30.07,South,186,6.0,7.0,47,0.00,,,0.01,Wunderground v.1.15,2013-04-24 21:33:00,
2013-04-24 16:35:00,51.8,34.2,30.07,WSW,246,5.0,7.0,51,0.00,,,0.01,Wunderground v.1.15,2013-04-24 21:35:00,
2013-04-24 16:36:00,51.8,34.2,30.07,WSW,249,5.0,7.0,51,0.00,,,0.01,Wunderground v.1.15,2013-04-24 21:36:00,
2013-04-24 16:38:00,51.9,34.3,30.07,WSW,245,5.0,7.0,51,0.00,,,0.01,Wunderground v.1.15,2013-04-24 21:38:00,
2013-04-24 16:42:00,51.9,33.8,30.07,WSW,257,5.0,8.0,50,0.00,,,0.01,Wunderground v.1.15,2013-04-24 21:42:00,
2013-04-24 16:44:00,52.0,32.9,30.07,WSW,253,5.0,8.0,48,0.00,,,0.01,Wunderground v.1.15,2013-04-24 21:44:00,
2013-04-24 16:45:00,52.0,32.9,30.07,SSW,207,5.0,8.0,48,0.00,,,0.01,Wunderground v.1.15,2013-04-24 21:45:00,
2013-04-24 16:47:00,52.1,33.5,30.07,WSW,246,5.0,9.0,49,0.00,,,0.01,Wunderground v.1.15,2013-04-24 21:47:00,
2013-04-24 16:48:00,52.1,34.0,30.07,WSW,250,5.0,9.0,50,0.00,,,0.01,Wunderground v.1.15,2013-04-24 21:48:00,
2013-04-24 16:51:00,52.1,33.0,30.07,WSW,250,6.0,7.0,48,0.00,,,0.01,Wunderground v.1.15,2013-04-24 21:51:00,
2013-04-24 16:52:00,52.1,33.0,30.07,WSW,252,5.0,7.0,48,0.00,,,0.01,Wunderground v.1.15,2013-04-24 21:52:00,
2013-04-24 16:54:00,52.1,34.0,30.07,WSW,246,5.0,7.0,50,0.00,,,0.01,Wunderground v.1.15,2013-04-24 21:54:00,
2013-04-24 16:55:00,52.1,34.0,30.08,SW,236,5.0,7.0,50,0.00,,,0.01,Wunderground v.1.15,2013-04-24 21:55:00,
2013-04-24 16:56:00,52.2,33.6,30.08,WSW,242,5.0,7.0,49,0.00,,,0.01,Wunderground v.1.15,2013-04-24 21:56:00,
2013-04-24 16:57:00,52.2,33.6,30.08,WSW,244,5.0,7.0,49,0.00,,,0.01,Wunderground v.1.15,2013-04-24 21:57:00,
2013-04-24 17:02:00,52.3,32.1,30.08,WSW,241,4.0,6.0,46,0.00,,,0.01,Wunderground v.1.15,2013-04-24 22:02:00,
2013-04-24 17:03:00,52.3,33.7,30.08,WSW,241,4.0,6.0,49,0.00,,,0.01,Wunderground v.1.15,2013-04-24 22:03:00,
2013-04-24 17:04:00,52.3,33.7,30.08,WNW,302,4.0,6.0,49,0.00,,,0.01,Wunderground v.1.15,2013-04-24 22:04:00,
2013-04-24 17:05:00,52.3,32.1,30.07,NW,312,4.0,6.0,46,0.00,,,0.01,Wunderground v.1.15,2013-04-24 22:05:00,
2013-04-24 17:07:00,52.2,33.1,30.07,WNW,286,4.0,6.0,48,0.00,,,0.01,Wunderground v.1.15,2013-04-24 22:07:00,
2013-04-24 17:08:00,52.1,31.9,30.07,West,279,3.0,6.0,46,0.00,,,0.01,Wunderground v.1.15,2013-04-24 22:08:00,
2013-04-24 17:09:00,52.2,34.1,30.08,West,259,3.0,6.0,50,0.00,,,0.01,Wunderground v.1.15,2013-04-24 22:09:00,
2013-04-24 17:10:00,52.2,33.6,30.07,West,265,4.0,7.0,49,0.00,,,0.01,Wunderground v.1.15,2013-04-24 22:10:00,
2013-04-24 17:15:00,52.2,32.6,30.08,WSW,246,4.0,7.0,47,0.00,,,0.01,Wunderground v.1.15,2013-04-24 22:15:00,
2013-04-24 17:16:00,52.2,32.6,30.08,WSW,256,4.0,9.0,47,0.00,,,0.01,Wunderground v.1.15,2013-04-24 22:16:00,
2013-04-24 17:17:00,52.2,32.6,30.07,WSW,251,5.0,9.0,47,0.00,,,0.01,Wunderground v.1.15,2013-04-24 22:17:00,
2013-04-24 17:20:00,52.1,31.9,30.08,WSW,253,5.0,6.0,46,0.00,,,0.01,Wunderground v.1.15,2013-04-24 22:20:00,
2013-04-24 17:21:00,52.1,31.9,30.07,SW,234,5.0,7.0,46,0.00,,,0.01,Wunderground v.1.15,2013-04-24 22:21:00,
2013-04-24 17:22:00,52.0,31.8,30.07,SW,234,5.0,7.0,46,0.00,,,0.01,Wunderground v.1.15,2013-04-24 22:22:00,
2013-04-24 17:25:00,51.9,31.7,30.07,WSW,250,6.0,7.0,46,0.00,,,0.01,Wunderground v.1.15,2013-04-24 22:25:00,
2013-04-24 17:26:00,51.9,32.3,30.07,WSW,246,6.0,7.0,47,0.00,,,0.01,Wunderground v.1.15,2013-04-24 22:26:00,
2013-04-24 17:27:00,52.0,32.9,30.07,WSW,244,5.0,7.0,48,0.00,,,0.01,Wunderground v.1.15,2013-04-24 22:27:00,
2013-04-24 17:30:00,52.0,31.8,30.08,SW,232,5.0,5.0,46,0.00,,,0.01,Wunderground v.1.15,2013-04-24 22:30:00,
2013-04-24 17:31:00,52.0,31.3,30.08,WSW,254,5.0,5.0,45,0.00,,,0.01,Wunderground v.1.15,2013-04-24 22:31:00,
2013-04-24 17:32:00,52.0,31.3,30.07,WSW,249,5.0,5.0,45,0.00,,,0.01,Wunderground v.1.15,2013-04-24 22:32:00,
2013-04-24 17:33:00,52.0,31.8,30.07,SW,233,5.0,5.0,46,0.00,,,0.01,Wunderground v.1.15,2013-04-24 22:33:00,
2013-04-24 17:35:00,52.0,31.8,30.07,SW,236,5.0,5.0,46,0.00,,,0.01,Wunderground v.1.15,2013-04-24 22:35:00,
2013-04-24 17:36:00,52.0,31.3,30.07,WSW,240,5.0,5.0,45,0.00,,,0.01,Wunderground v.1.15,2013-04-24 22:36:00,
2013-04-24 17:38:00,52.0,31.3,30.07,WSW,240,5.0,5.0,45,0.00,,,0.01,Wunderground v.1.15,2013-04-24 22:38:00,
2013-04-24 17:41:00,52.2,31.5,30.07,SW,223,4.0,9.0,45,0.00,,,0.01,Wunderground v.1.15,2013-04-24 22:41:00,
2013-04-24 17:42:00,52.2,31.5,30.07,WSW,250,4.0,9.0,45,0.00,,,0.01,Wunderground v.1.15,2013-04-24 22:42:00,
2013-04-24 17:45:00,52.2,30.9,30.07,West,259,5.0,9.0,44,0.00,,,0.01,Wunderground v.1.15,2013-04-24 22:45:00,
2013-04-24 17:48:00,52.1,31.9,30.07,WSW,256,5.0,12.0,46,0.00,,,0.01,Wunderground v.1.15,2013-04-24 22:48:00,
2013-04-24 17:51:00,51.9,32.8,30.07,WSW,250,5.0,11.0,48,0.00,,,0.01,Wunderground v.1.15,2013-04-24 22:51:00,
2013-04-24 17:53:00,51.9,30.6,30.07,SW,225,5.0,11.0,44,0.00,,,0.01,Wunderground v.1.15,2013-04-24 22:53:00,
2013-04-24 17:55:00,51.8,31.1,30.07,SW,236,5.0,11.0,45,0.00,,,0.01,Wunderground v.1.15,2013-04-24 22:55:00,
2013-04-24 17:56:00,51.8,31.1,30.08,SSW,202,5.0,11.0,45,0.00,,,0.01,Wunderground v.1.15,2013-04-24 22:56:00,
2013-04-24 17:57:00,51.8,31.1,30.08,SSW,208,5.0,11.0,45,0.00,,,0.01,Wunderground v.1.15,2013-04-24 22:57:00,
2013-04-24 18:01:00,51.7,31.0,30.07,SSW,211,6.0,6.0,45,0.00,,,0.01,Wunderground v.1.15,2013-04-24 23:01:00,
2013-04-24 18:03:00,51.7,31.6,30.08,SW,234,5.0,6.0,46,0.00,,,0.01,Wunderground v.1.15,2013-04-24 23:03:00,
2013-04-24 18:04:00,51.7,29.9,30.08,WSW,237,6.0,6.0,43,0.00,,,0.01,Wunderground v.1.15,2013-04-24 23:04:00,
2013-04-24 18:05:00,51.6,30.9,30.07,WSW,257,6.0,6.0,45,0.00,,,0.01,Wunderground v.1.15,2013-04-24 23:05:00,
2013-04-24 18:06:00,51.6,30.9,30.07,WSW,253,5.0,6.0,45,0.00,,,0.01,Wunderground v.1.15,2013-04-24 23:06:00,
2013-04-24 18:09:00,51.6,30.9,30.07,WSW,240,5.0,7.0,45,0.00,,,0.01,Wunderground v.1.15,2013-04-24 23:09:00,
2013-04-24 18:10:00,51.6,30.4,30.07,WSW,242,5.0,5.0,44,0.00,,,0.01,Wunderground v.1.15,2013-04-24 23:10:00,
2013-04-24 18:11:00,51.5,30.8,30.07,SW,225,5.0,5.0,45,0.00,,,0.01,Wunderground v.1.15,2013-04-24 23:11:00,
2013-04-24 18:12:00,51.5,30.3,30.07,SW,235,5.0,5.0,44,0.00,,,0.01,Wunderground v.1.15,2013-04-24 23:12:00,
2013-04-24 18:17:00,51.3,30.7,30.08,SSW,213,5.0,7.0,45,0.00,,,0.01,Wunderground v.1.15,2013-04-24 23:17:00,
2013-04-24 18:18:00,51.3,30.7,30.07,SSW,208,5.0,7.0,45,0.00,,,0.01,Wunderground v.1.15,2013-04-24 23:18:00,
2013-04-24 18:19:00,51.2,30.0,30.07,SSW,210,5.0,7.0,44,0.00,,,0.01,Wunderground v.1.15,2013-04-24 23:19:00,
2013-04-24 18:22:00,51.0,29.8,30.07,SSW,195,5.0,7.0,44,0.00,,,0.01,Wunderground v.1.15,2013-04-24 23:22:00,
2013-04-24 18:24:00,50.9,29.7,30.07,SSW,207,6.0,7.0,44,0.00,,,0.01,Wunderground v.1.15,2013-04-24 23:24:00,
2013-04-24 18:25:00,50.8,29.6,30.08,SSW,213,6.0,7.0,44,0.00,,,0.01,Wunderground v.1.15,2013-04-24 23:25:00,
2013-04-24 18:30:00,50.3,29.7,30.08,SW,219,6.0,6.0,45,0.00,,,0.01,Wunderground v.1.15,2013-04-24 23:30:00,
2013-04-24 18:31:00,50.1,29.6,30.08,SSW,213,6.0,6.0,45,0.00,,,0.01,Wunderground v.1.15,2013-04-24 23:31:00,
2013-04-24 18:32:00,50.1,29.6,30.08,WSW,244,6.0,6.0,45,0.00,,,0.01,Wunderground v.1.15,2013-04-24 23:32:00,
2013-04-24 18:35:00,49.8,29.3,30.08,WSW,243,6.0,6.0,45,0.00,,,0.01,Wunderground v.1.15,2013-04-24 23:35:00,
2013-04-24 18:37:00,49.7,29.7,30.08,SW,233,6.0,6.0,46,0.00,,,0.01,Wunderground v.1.15,2013-04-24 23:37:00,
2013-04-24 18:38:00,49.6,29.6,30.08,SW,233,6.0,6.0,46,0.00,,,0.01,Wunderground v.1.15,2013-04-24 23:38:00,
2013-04-24 18:40:00,49.5,29.6,30.08,SW,232,6.0,7.0,46,0.00,,,0.01,Wunderground v.1.15,2013-04-24 23:40:00,
2013-04-24 18:41:00,49.5,29.6,30.08,WSW,249,6.0,7.0,46,0.00,,,0.01,Wunderground v.1.15,2013-04-24 23:41:00,
2013-04-24 18:43:00,49.4,30.0,30.08,SSW,198,6.0,8.0,47,0.00,,,0.01,Wunderground v.1.15,2013-04-24 23:43:00,
2013-04-24 18:45:00,49.3,29.4,30.08,SW,233,6.0,8.0,46,0.00,,,0.01,Wunderground v.1.15,2013-04-24 23:45:00,
2013-04-24 18:46:00,49.2,29.3,30.08,SSW,197,6.0,8.0,46,0.00,,,0.01,Wunderground v.1.15,2013-04-24 23:46:00,
2013-04-24 18:47:00,49.2,29.3,30.08,SW,229,6.0,8.0,46,0.00,,,0.01,Wunderground v.1.15,2013-04-24 23:47:00,
2013-04-24 18:50:00,49.1,29.2,30.09,SW,233,6.0,6.0,46,0.00,,,0.01,Wunderground v.1.15,2013-04-24 23:50:00,
2013-04-24 18:53:00,49.0,29.1,30.09,SW,227,6.0,6.0,46,0.00,,,0.01,Wunderground v.1.15,2013-04-24 23:53:00,
2013-04-24 18:54:00,49.0,29.1,30.08,SW,218,6.0,6.0,46,0.00,,,0.01,Wunderground v.1.15,2013-04-24 23:54:00,
2013-04-24 18:55:00,48.9,29.5,30.09,SSW,207,6.0,12.0,47,0.00,,,0.01,Wunderground v.1.15,2013-04-24 23:55:00,
2013-04-24 18:58:00,48.8,29.4,30.08,SSW,211,6.0,12.0,47,0.00,,,0.01,Wunderground v.1.15,2013-04-24 23:58:00,
2013-04-24 19:00:00,48.8,30.0,30.08,WSW,255,5.0,5.0,48,0.00,,,0.01,Wunderground v.1.15,2013-04-25 00:00:00,
2013-04-24 19:01:00,48.7,29.9,30.08,WSW,253,5.0,5.0,48,0.00,,,0.01,Wunderground v.1.15,2013-04-25 00:01:00,
2013-04-24 19:05:00,48.6,29.3,30.08,SW,236,5.0,7.0,47,0.00,,,0.01,Wunderground v.1.15,2013-04-25 00:05:00,
2013-04-24 19:06:00,48.6,29.8,30.08,SW,225,5.0,7.0,48,0.00,,,0.01,Wunderground v.1.15,2013-04-25 00:06:00,
2013-04-24 19:07:00,48.6,29.3,30.08,SW,225,5.0,7.0,47,0.00,,,0.01,Wunderground v.1.15,2013-04-25 00:07:00,
2013-04-24 19:11:00,48.5,29.7,30.09,SW,225,5.0,5.0,48,0.00,,,0.01,Wunderground v.1.15,2013-04-25 00:11:00,
2013-04-24 19:12:00,48.5,29.2,30.08,SW,227,5.0,5.0,47,0.00,,,0.01,Wunderground v.1.15,2013-04-25 00:12:00,
2013-04-24 19:15:00,48.4,29.1,30.08,SW,235,4.0,6.0,47,0.00,,,0.01,Wunderground v.1.15,2013-04-25 00:15:00,
2013-04-24 19:16:00,48.3,29.0,30.08,SW,236,4.0,6.0,47,0.00,,,0.01,Wunderground v.1.15,2013-04-25 00:16:00,
2013-04-24 19:19:00,48.2,28.9,30.09,WSW,251,4.0,7.0,47,0.00,,,0.01,Wunderground v.1.15,2013-04-25 00:19:00,
2013-04-24 19:21:00,48.1,28.8,30.08,SSW,211,4.0,4.0,47,0.00,,,0.01,Wunderground v.1.15,2013-04-25 00:21:00,
2013-04-24 19:23:00,48.0,29.2,30.09,SSW,211,4.0,4.0,48,0.00,,,0.01,Wunderground v.1.15,2013-04-25 00:23:00,
2013-04-24 19:24:00,48.0,29.7,30.08,SW,215,4.0,4.0,49,0.00,,,0.01,Wunderground v.1.15,2013-04-25 00:24:00,
2013-04-24 19:25:00,48.0,29.2,30.08,SW,223,4.0,7.0,48,0.00,,,0.01,Wunderground v.1.15,2013-04-25 00:25:00,
2013-04-24 19:27:00,47.9,29.1,30.09,SSW,208,4.0,7.0,48,0.00,,,0.01,Wunderground v.1.15,2013-04-25 00:27:00,
2013-04-24 19:28:00,47.8,29.0,30.09,SSW,204,5.0,7.0,48,0.00,,,0.01,Wunderground v.1.15,2013-04-25 00:28:00,
2013-04-24 19:30:00,47.7,28.9,30.09,SSW,201,5.0,5.0,48,0.00,,,0.01,Wunderground v.1.15,2013-04-25 00:30:00,
2013-04-24 19:32:00,47.6,28.9,30.09,SW,226,4.0,5.0,48,0.00,,,0.01,Wunderground v.1.15,2013-04-25 00:32:00,
2013-04-24 19:33:00,47.6,29.9,30.09,WSW,241,4.0,5.0,50,0.00,,,0.01,Wunderground v.1.15,2013-04-25 00:33:00,
2013-04-24 19:35:00,47.5,29.8,30.09,SSW,193,5.0,6.0,50,0.00,,,0.01,Wunderground v.1.15,2013-04-25 00:35:00,
2013-04-24 19:36:00,47.4,30.2,30.09,SW,220,4.0,6.0,51,0.00,,,0.01,Wunderground v.1.15,2013-04-25 00:36:00,
2013-04-24 19:41:00,47.2,30.0,30.09,SW,236,4.0,5.0,51,0.00,,,0.01,Wunderground v.1.15,2013-04-25 00:41:00,
2013-04-24 19:42:00,47.2,30.5,30.09,SW,235,4.0,5.0,52,0.00,,,0.01,Wunderground v.1.15,2013-04-25 00:42:00,
2013-04-24 19:43:00,47.1,29.9,30.09,SW,230,4.0,7.0,51,0.00,,,0.01,Wunderground v.1.15,2013-04-25 00:43:00,
2013-04-24 19:47:00,46.9,30.2,30.09,SW,219,4.0,7.0,52,0.00,,,0.01,Wunderground v.1.15,2013-04-25 00:47:00,
2013-04-24 19:48:00,46.8,30.6,30.09,SW,219,4.0,7.0,53,0.00,,,0.01,Wunderground v.1.15,2013-04-25 00:48:00,
2013-04-24 19:50:00,46.7,30.0,30.09,SSW,205,4.0,4.0,52,0.00,,,0.01,Wunderground v.1.15,2013-04-25 00:50:00,
2013-04-24 19:51:00,46.6,29.9,30.09,SSW,205,4.0,4.0,52,0.00,,,0.01,Wunderground v.1.15,2013-04-25 00:51:00,
2013-04-24 19:52:00,46.6,30.4,30.09,SSW,205,4.0,4.0,53,0.00,,,0.01,Wunderground v.1.15,2013-04-25 00:52:00,
2013-04-24 19:55:00,46.4,30.2,30.09,SW,214,3.0,4.0,53,0.00,,,0.01,Wunderground v.1.15,2013-04-25 00:55:00,
2013-04-24 19:56:00,46.3,30.1,30.09,SW,214,3.0,4.0,53,0.00,,,0.01,Wunderground v.1.15,2013-04-25 00:56:00,
2013-04-24 19:57:00,46.3,30.5,30.09,SW,214,3.0,4.0,54,0.00,,,0.01,Wunderground v.1.15,2013-04-25 00:57:00,
2013-04-24 20:01:00,45.9,30.2,30.09,SW,223,3.0,3.0,54,0.00,,,0.01,Wunderground v.1.15,2013-04-25 01:01:00,
2013-04-24 20:03:00,45.8,30.1,30.09,SW,223,3.0,5.0,54,0.00,,,0.01,Wunderground v.1.15,2013-04-25 01:03:00,
2013-04-24 20:05:00,45.7,30.0,30.09,WSW,238,3.0,5.0,54,0.00,,,0.01,Wunderground v.1.15,2013-04-25 01:05:00,
2013-04-24 20:06:00,45.6,29.9,30.09,SW,228,3.0,5.0,54,0.00,,,0.01,Wunderground v.1.15,2013-04-25 01:06:00,
2013-04-24 20:09:00,45.5,30.3,30.09,SW,225,3.0,5.0,55,0.00,,,0.01,Wunderground v.1.15,2013-04-25 01:09:00,
2013-04-24 20:10:00,45.4,30.2,30.09,SW,225,3.0,3.0,55,0.00,,,0.01,Wunderground v.1.15,2013-04-25 01:10:00,
2013-04-24 20:12:00,45.3,30.5,30.09,SW,224,3.0,3.0,56,0.00,,,0.01,Wunderground v.1.15,2013-04-25 01:12:00,
2013-04-24 20:15:00,45.2,30.4,30.09,SW,224,3.0,3.0,56,0.00,,,0.01,Wunderground v.1.15,2013-04-25 01:15:00,
2013-04-24 20:18:00,45.1,30.3,30.09,SW,224,2.0,4.0,56,0.00,,,0.01,Wunderground v.1.15,2013-04-25 01:18:00,
2013-04-24 20:19:00,45.0,30.2,30.09,SSW,204,2.0,4.0,56,0.00,,,0.01,Wunderground v.1.15,2013-04-25 01:19:00,
2013-04-24 20:20:00,45.0,30.2,30.09,SSW,203,2.0,6.0,56,0.00,,,0.01,Wunderground v.1.15,2013-04-25 01:20:00,
2013-04-24 20:22:00,44.9,30.1,30.09,SSW,202,3.0,6.0,56,0.00,,,0.01,Wunderground v.1.15,2013-04-25 01:22:00,
2013-04-24 20:25:00,44.9,30.1,30.09,SSW,203,3.0,6.0,56,0.00,,,0.01,Wunderground v.1.15,2013-04-25 01:25:00,
2013-04-24 20:27:00,44.8,30.0,30.09,SSW,202,4.0,6.0,56,0.00,,,0.01,Wunderground v.1.15,2013-04-25 01:27:00,
2013-04-24 20:28:00,44.9,30.1,30.09,SSW,203,4.0,6.0,56,0.00,,,0.01,Wunderground v.1.15,2013-04-25 01:28:00,
2013-04-24 20:32:00,44.8,30.0,30.09,SSW,199,3.0,4.0,56,0.00,,,0.01,Wunderground v.1.15,2013-04-25 01:32:00,
2013-04-24 20:33:00,44.8,30.0,30.09,SSW,201,3.0,4.0,56,0.00,,,0.01,Wunderground v.1.15,2013-04-25 01:33:00,
2013-04-24 20:35:00,44.7,30.0,30.09,SSW,200,3.0,5.0,56,0.00,,,0.01,Wunderground v.1.15,2013-04-25 01:35:00,
2013-04-24 20:36:00,44.7,30.0,30.09,SSW,201,3.0,5.0,56,0.00,,,0.01,Wunderground v.1.15,2013-04-25 01:36:00,
2013-04-24 20:40:00,44.7,30.0,30.09,SSW,201,3.0,4.0,56,0.00,,,0.01,Wunderground v.1.15,2013-04-25 01:40:00,
2013-04-24 20:41:00,44.6,29.9,30.09,SSW,202,3.0,4.0,56,0.00,,,0.01,Wunderground v.1.15,2013-04-25 01:41:00,
2013-04-24 20:42:00,44.6,29.9,30.09,SSW,202,3.0,4.0,56,0.00,,,0.01,Wunderground v.1.15,2013-04-25 01:42:00,
2013-04-24 20:44:00,44.5,29.8,30.09,SSW,202,3.0,5.0,56,0.00,,,0.01,Wunderground v.1.15,2013-04-25 01:44:00,
2013-04-24 20:45:00,44.5,29.8,30.09,SSW,201,3.0,5.0,56,0.00,,,0.01,Wunderground v.1.15,2013-04-25 01:45:00,
2013-04-24 20:47:00,44.4,30.1,30.09,SSW,205,4.0,8.0,57,0.00,,,0.01,Wunderground v.1.15,2013-04-25 01:47:00,
2013-04-24 20:48:00,44.4,30.1,30.09,SSW,198,4.0,8.0,57,0.00,,,0.01,Wunderground v.1.15,2013-04-25 01:48:00,
2013-04-24 20:51:00,44.4,30.1,30.09,SSW,198,4.0,4.0,57,0.00,,,0.01,Wunderground v.1.15,2013-04-25 01:51:00,
2013-04-24 20:53:00,44.4,30.1,30.10,SSW,192,4.0,5.0,57,0.00,,,0.01,Wunderground v.1.15,2013-04-25 01:53:00,
2013-04-24 20:55:00,44.3,30.0,30.10,SSW,193,4.0,6.0,57,0.00,,,0.01,Wunderground v.1.15,2013-04-25 01:55:00,
2013-04-24 20:56:00,44.4,30.1,30.10,SSW,195,4.0,6.0,57,0.00,,,0.01,Wunderground v.1.15,2013-04-25 01:56:00,
2013-04-24 20:58:00,44.3,30.4,30.10,SSW,196,4.0,6.0,58,0.00,,,0.01,Wunderground v.1.15,2013-04-25 01:58:00,
2013-04-24 21:00:00,44.4,30.5,30.10,SSW,201,4.0,6.0,58,0.00,,,0.01,Wunderground v.1.15,2013-04-25 02:00:00,
2013-04-24 21:01:00,44.3,30.4,30.10,SSW,196,4.0,6.0,58,0.00,,,0.01,Wunderground v.1.15,2013-04-25 02:01:00,
2013-04-24 21:02:00,44.3,30.4,30.10,SSW,196,5.0,6.0,58,0.00,,,0.01,Wunderground v.1.15,2013-04-25 02:02:00,
2013-04-24 21:03:00,44.4,31.0,30.10,South,189,5.0,7.0,59,0.00,,,0.01,Wunderground v.1.15,2013-04-25 02:03:00,
2013-04-24 21:05:00,44.4,31.0,30.10,SSW,204,5.0,8.0,59,0.00,,,0.01,Wunderground v.1.15,2013-04-25 02:05:00,
2013-04-24 21:07:00,44.4,31.4,30.10,SSW,200,5.0,8.0,60,0.00,,,0.01,Wunderground v.1.15,2013-04-25 02:07:00,
2013-04-24 21:08:00,44.4,31.4,30.10,SSW,192,5.0,8.0,60,0.00,,,0.01,Wunderground v.1.15,2013-04-25 02:08:00,
2013-04-24 21:12:00,44.4,31.8,30.10,SSW,196,5.0,6.0,61,0.00,,,0.01,Wunderground v.1.15,2013-04-25 02:12:00,
2013-04-24 21:13:00,44.3,31.7,30.10,SSW,198,5.0,6.0,61,0.00,,,0.01,Wunderground v.1.15,2013-04-25 02:13:00,
2013-04-24 21:14:00,44.3,32.1,30.11,SSW,194,5.0,6.0,62,0.00,,,0.01,Wunderground v.1.15,2013-04-25 02:14:00,
2013-04-24 21:15:00,44.3,32.1,30.10,SSW,196,5.0,6.0,62,0.00,,,0.01,Wunderground v.1.15,2013-04-25 02:15:00,
2013-04-24 21:19:00,44.2,32.4,30.11,SSW,199,5.0,7.0,63,0.00,,,0.01,Wunderground v.1.15,2013-04-25 02:19:00,
2013-04-24 21:20:00,44.1,32.3,30.11,SSW,208,5.0,5.0,63,0.00,,,0.01,Wunderground v.1.15,2013-04-25 02:20:00,
2013-04-24 21:21:00,44.1,32.3,30.11,SSW,208,5.0,5.0,63,0.00,,,0.01,Wunderground v.1.15,2013-04-25 02:21:00,
2013-04-24 21:22:00,44.0,32.2,30.11,SSW,208,5.0,5.0,63,0.00,,,0.01,Wunderground v.1.15,2013-04-25 02:22:00,
2013-04-24 21:25:00,43.9,32.5,30.11,SSW,213,5.0,5.0,64,0.00,,,0.01,Wunderground v.1.15,2013-04-25 02:25:00,
2013-04-24 21:27:00,43.8,32.4,30.11,SSW,208,4.0,5.0,64,0.00,,,0.01,Wunderground v.1.15,2013-04-25 02:27:00,
2013-04-24 21:28:00,43.7,32.3,30.11,SSW,208,4.0,5.0,64,0.00,,,0.01,Wunderground v.1.15,2013-04-25 02:28:00,
2013-04-24 21:29:00,43.7,32.7,30.11,SSW,208,4.0,5.0,65,0.00,,,0.01,Wunderground v.1.15,2013-04-25 02:29:00,
2013-04-24 21:30:00,43.6,32.6,30.11,SSW,208,4.0,4.0,65,0.00,,,0.01,Wunderground v.1.15,2013-04-25 02:30:00,
2013-04-24 21:31:00,43.6,32.6,30.11,SSW,205,4.0,6.0,65,0.00,,,0.01,Wunderground v.1.15,2013-04-25 02:31:00,
2013-04-24 21:32:00,43.5,32.5,30.11,SSW,202,4.0,6.0,65,0.00,,,0.01,Wunderground v.1.15,2013-04-25 02:32:00,
2013-04-24 21:37:00,43.4,32.8,30.11,SSW,198,5.0,10.0,66,0.00,,,0.01,Wunderground v.1.15,2013-04-25 02:37:00,
2013-04-24 21:40:00,43.3,32.7,30.11,SSW,202,5.0,6.0,66,0.00,,,0.01,Wunderground v.1.15,2013-04-25 02:40:00,
2013-04-24 21:41:00,43.3,32.7,30.11,SW,219,5.0,6.0,66,0.00,,,0.01,Wunderground v.1.15,2013-04-25 02:41:00,
2013-04-24 21:44:00,43.3,32.7,30.11,South,188,5.0,6.0,66,0.00,,,0.01,Wunderground v.1.15,2013-04-25 02:44:00,
2013-04-24 21:45:00,43.3,33.1,30.11,South,191,5.0,9.0,67,0.00,,,0.01,Wunderground v.1.15,2013-04-25 02:45:00,
2013-04-24 21:47:00,43.3,33.1,30.11,SSW,205,5.0,9.0,67,0.00,,,0.01,Wunderground v.1.15,2013-04-25 02:47:00,
2013-04-24 21:49:00,43.2,33.0,30.11,SSW,200,5.0,9.0,67,0.00,,,0.01,Wunderground v.1.15,2013-04-25 02:49:00,
2013-04-24 21:52:00,43.1,32.9,30.11,SSW,192,5.0,9.0,67,0.00,,,0.01,Wunderground v.1.15,2013-04-25 02:52:00,
2013-04-24 21:53:00,43.1,32.9,30.11,SSW,192,5.0,9.0,67,0.00,,,0.01,Wunderground v.1.15,2013-04-25 02:53:00,
2013-04-24 21:54:00,43.1,32.9,30.11,SSW,195,5.0,9.0,67,0.00,,,0.01,Wunderground v.1.15,2013-04-25 02:54:00,
2013-04-24 21:55:00,43.1,32.9,30.11,SSW,195,5.0,9.0,67,0.00,,,0.01,Wunderground v.1.15,2013-04-25 02:55:00,
2013-04-24 21:58:00,43.0,33.2,30.11,SSW,192,5.0,9.0,68,0.00,,,0.01,Wunderground v.1.15,2013-04-25 02:58:00,
2013-04-24 21:59:00,43.0,33.2,30.11,SSW,207,5.0,9.0,68,0.00,,,0.01,Wunderground v.1.15,2013-04-25 02:59:00,
2013-04-24 22:00:00,43.0,33.2,30.11,SSW,193,5.0,6.0,68,0.00,,,0.01,Wunderground v.1.15,2013-04-25 03:00:00,
2013-04-24 22:04:00,43.0,33.2,30.11,South,184,5.0,7.0,68,0.00,,,0.01,Wunderground v.1.15,2013-04-25 03:04:00,
2013-04-24 22:05:00,43.0,33.2,30.11,SSW,198,5.0,7.0,68,0.00,,,0.01,Wunderground v.1.15,2013-04-25 03:05:00,
2013-04-24 22:07:00,42.9,33.1,30.11,SSW,211,5.0,7.0,68,0.00,,,0.01,Wunderground v.1.15,2013-04-25 03:07:00,
2013-04-24 22:08:00,42.9,33.1,30.11,SSW,204,6.0,7.0,68,0.00,,,0.01,Wunderground v.1.15,2013-04-25 03:08:00,
2013-04-24 22:10:00,42.9,33.1,30.11,SSW,200,6.0,7.0,68,0.00,,,0.01,Wunderground v.1.15,2013-04-25 03:10:00,
2013-04-24 22:11:00,42.8,33.0,30.11,SSW,201,6.0,7.0,68,0.00,,,0.01,Wunderground v.1.15,2013-04-25 03:11:00,
2013-04-24 22:13:00,42.8,33.0,30.11,SSW,213,5.0,7.0,68,0.00,,,0.01,Wunderground v.1.15,2013-04-25 03:13:00,
2013-04-24 22:16:00,42.7,33.2,30.11,SSW,200,6.0,9.0,69,0.00,,,0.01,Wunderground v.1.15,2013-04-25 03:16:00,
2013-04-24 22:17:00,42.7,33.2,30.11,SSW,199,6.0,12.0,69,0.00,,,0.01,Wunderground v.1.15,2013-04-25 03:17:00,
2013-04-24 22:19:00,42.6,33.1,30.11,SSW,197,6.0,12.0,69,0.00,,,0.01,Wunderground v.1.15,2013-04-25 03:19:00,
2013-04-24 22:20:00,42.6,33.1,30.11,South,188,6.0,9.0,69,0.00,,,0.01,Wunderground v.1.15,2013-04-25 03:20:00,
2013-04-24 22:22:00,42.5,33.4,30.10,South,191,6.0,9.0,70,0.00,,,0.01,Wunderground v.1.15,2013-04-25 03:22:00,
2013-04-24 22:24:00,42.5,33.4,30.10,SSW,192,6.0,9.0,70,0.00,,,0.01,Wunderground v.1.15,2013-04-25 03:24:00,
2013-04-24 22:25:00,42.4,33.3,30.10,SSW,198,5.0,9.0,70,0.00,,,0.01,Wunderground v.1.15,2013-04-25 03:25:00,
2013-04-24 22:29:00,42.3,33.2,30.10,South,177,5.0,12.0,70,0.00,,,0.01,Wunderground v.1.15,2013-04-25 03:29:00,
2013-04-24 22:31:00,42.2,33.1,30.10,SSW,202,5.0,5.0,70,0.00,,,0.01,Wunderground v.1.15,2013-04-25 03:31:00,
2013-04-24 22:33:00,42.2,33.5,30.10,SSW,202,5.0,5.0,71,0.00,,,0.01,Wunderground v.1.15,2013-04-25 03:33:00,
2013-04-24 22:37:00,42.0,32.9,30.09,South,181,5.0,8.0,70,0.00,,,0.01,Wunderground v.1.15,2013-04-25 03:37:00,
2013-04-24 22:39:00,42.0,32.9,30.10,South,182,5.0,8.0,70,0.00,,,0.01,Wunderground v.1.15,2013-04-25 03:39:00,
2013-04-24 22:40:00,42.0,32.9,30.10,SSW,192,5.0,6.0,70,0.00,,,0.01,Wunderground v.1.15,2013-04-25 03:40:00,
2013-04-24 22:41:00,42.0,32.9,30.10,SSW,195,5.0,6.0,70,0.00,,,0.01,Wunderground v.1.15,2013-04-25 03:41:00,
2013-04-24 22:45:00,42.0,32.9,30.10,SW,216,5.0,7.0,70,0.00,,,0.01,Wunderground v.1.15,2013-04-25 03:45:00,
2013-04-24 22:46:00,42.0,32.9,30.10,South,190,5.0,7.0,70,0.00,,,0.01,Wunderground v.1.15,2013-04-25 03:46:00,
2013-04-24 22:49:00,42.0,32.9,30.10,South,189,5.0,7.0,70,0.00,,,0.01,Wunderground v.1.15,2013-04-25 03:49:00,
2013-04-24 22:52:00,41.9,32.8,30.09,SSW,196,6.0,6.0,70,0.00,,,0.01,Wunderground v.1.15,2013-04-25 03:52:00,
2013-04-24 22:53:00,41.9,32.8,30.09,South,186,5.0,10.0,70,0.00,,,0.01,Wunderground v.1.15,2013-04-25 03:53:00,
2013-04-24 22:54:00,41.9,32.8,30.09,SSW,201,6.0,10.0,70,0.00,,,0.01,Wunderground v.1.15,2013-04-25 03:54:00,
2013-04-24 22:55:00,41.9,32.8,30.10,SW,216,6.0,10.0,70,0.00,,,0.01,Wunderground v.1.15,2013-04-25 03:55:00,
2013-04-24 22:56:00,41.9,32.8,30.10,SSW,198,6.0,10.0,70,0.00,,,0.01,Wunderground v.1.15,2013-04-25 03:56:00,
2013-04-24 23:00:00,41.8,32.7,30.09,SSW,195,6.0,6.0,70,0.00,,,0.01,Wunderground v.1.15,2013-04-25 04:00:00,
2013-04-24 23:01:00,41.8,32.7,30.09,South,181,6.0,6.0,70,0.00,,,0.01,Wunderground v.1.15,2013-04-25 04:01:00,
2013-04-24 23:03:00,41.8,32.7,30.09,South,177,6.0,6.0,70,0.00,,,0.01,Wunderground v.1.15,2013-04-25 04:03:00,
2013-04-24 23:06:00,41.8,32.7,30.09,SSW,198,6.0,7.0,70,0.00,,,0.01,Wunderground v.1.15,2013-04-25 04:06:00,
2013-04-24 23:07:00,41.8,32.7,30.09,SSW,192,6.0,7.0,70,0.00,,,0.01,Wunderground v.1.15,2013-04-25 04:07:00,
2013-04-24 23:08:00,41.8,32.7,30.09,South,186,7.0,7.0,70,0.00,,,0.01,Wunderground v.1.15,2013-04-25 04:08:00,
2013-04-24 23:12:00,41.8,32.7,30.09,SSW,206,7.0,8.0,70,0.00,,,0.01,Wunderground v.1.15,2013-04-25 04:12:00,
2013-04-24 23:15:00,41.7,33.0,30.09,SSW,200,7.0,10.0,71,0.00,,,0.01,Wunderground v.1.15,2013-04-25 04:15:00,
2013-04-24 23:16:00,41.7,33.0,30.09,South,180,7.0,10.0,71,0.00,,,0.01,Wunderground v.1.15,2013-04-25 04:16:00,
2013-04-24 23:19:00,41.7,33.0,30.09,SSW,200,7.0,10.0,71,0.00,,,0.01,Wunderground v.1.15,2013-04-25 04:19:00,
2013-04-24 23:23:00,41.6,32.9,30.09,SSW,196,8.0,15.0,71,0.00,,,0.01,Wunderground v.1.15,2013-04-25 04:23:00,
2013-04-24 23:24:00,41.6,32.9,30.09,SSW,200,8.0,15.0,71,0.00,,,0.01,Wunderground v.1.15,2013-04-25 04:24:00,
2013-04-24 23:27:00,41.5,32.8,30.08,SSW,194,7.0,15.0,71,0.00,,,0.01,Wunderground v.1.15,2013-04-25 04:27:00,
2013-04-24 23:30:00,41.4,32.7,30.08,SSW,200,7.0,7.0,71,0.00,,,0.01,Wunderground v.1.15,2013-04-25 04:30:00,
2013-04-24 23:31:00,41.4,32.7,30.08,SW,219,7.0,7.0,71,0.00,,,0.01,Wunderground v.1.15,2013-04-25 04:31:00,
2013-04-24 23:32:00,41.4,32.7,30.08,SSW,197,7.0,11.0,71,0.00,,,0.01,Wunderground v.1.15,2013-04-25 04:32:00,
2013-04-24 23:33:00,41.4,32.7,30.08,SSW,211,7.0,11.0,71,0.00,,,0.01,Wunderground v.1.15,2013-04-25 04:33:00,
2013-04-24 23:36:00,41.3,32.6,30.08,SSW,202,7.0,11.0,71,0.00,,,0.01,Wunderground v.1.15,2013-04-25 04:36:00,
2013-04-24 23:37:00,41.3,32.6,30.08,SSW,213,7.0,11.0,71,0.00,,,0.01,Wunderground v.1.15,2013-04-25 04:37:00,
2013-04-24 23:41:00,41.1,32.8,30.08,South,181,7.0,11.0,72,0.00,,,0.01,Wunderground v.1.15,2013-04-25 04:41:00,
2013-04-24 23:42:00,41.1,32.8,30.08,WSW,241,7.0,11.0,72,0.00,,,0.01,Wunderground v.1.15,2013-04-25 04:42:00,
2013-04-24 23:43:00,41.1,32.8,30.08,SSW,198,7.0,11.0,72,0.00,,,0.01,Wunderground v.1.15,2013-04-25 04:43:00,
2013-04-24 23:46:00,41.0,32.7,30.08,SSW,196,8.0,11.0,72,0.00,,,0.01,Wunderground v.1.15,2013-04-25 04:46:00,
2013-04-24 23:49:00,41.0,32.7,30.08,WSW,239,8.0,11.0,72,0.00,,,0.01,Wunderground v.1.15,2013-04-25 04:49:00,
2013-04-24 23:52:00,41.0,33.0,30.09,SSW,199,9.0,13.0,73,0.00,,,0.01,Wunderground v.1.15,2013-04-25 04:52:00,
2013-04-24 23:53:00,41.0,33.0,30.09,South,172,9.0,13.0,73,0.00,,,0.01,Wunderground v.1.15,2013-04-25 04:53:00,
2013-04-24 23:54:00,40.9,32.9,30.09,SSW,205,8.0,13.0,73,0.00,,,0.01,Wunderground v.1.15,2013-04-25 04:54:00,
2013-04-24 23:55:00,40.9,32.9,30.09,SW,217,8.0,13.0,73,0.00,,,0.01,Wunderground v.1.15,2013-04-25 04:55:00,
2013-04-24 23:59:00,40.9,32.9,30.09,SSW,192,8.0,13.0,73,0.00,,,0.01,Wunderground v.1.15,2013-04-25 04:59:00,